Time,TemperatureF,DewpointF,PressureIn,WindDirection,WindDirectionDegrees,WindSpeedMPH,WindSpeedGustMPH,Humidity,HourlyPrecipIn,Conditions,Clouds,dailyrainin,SolarRadiationWatts/m^2,SoftwareType,DateUTC
2013-04-10 00:00:00,74.3,66.2,29.68,ESE,110,8.0,11.0,76,0.00,,,0.00,0,Wunderground v.1.15,2013-04-10 05:00:00,
2013-04-10 00:02:00,74.3,66.2,29.68,SSE,149,8.0,15.0,76,0.00,,,0.00,0,Wunderground v.1.15,2013-04-10 05:02:00,
2013-04-10 00:06:00,74.3,66.6,29.68,SE,144,8.0,15.0,77,0.00,,,0.00,0,Wunderground v.1.15,2013-04-10 05:06:00,
2013-04-10 00:07:00,74.2,66.5,29.68,SE,137,8.0,15.0,77,0.00,,,0.00,0,Wunderground v.1.15,2013-04-10 05:07:00,
2013-04-10 00:11:00,74.2,66.5,29.68,SE,131,9.0,12.0,77,0.00,,,0.00,0,Wunderground v.1.15,2013-04-10 05:11:00,
2013-04-10 00:12:00,74.2,66.5,29.68,SE,129,9.0,12.0,77,0.00,,,0.00,0,Wunderground v.1.15,2013-04-10 05:12:00,
2013-04-10 00:13:00,74.2,66.5,29.68,SE,142,9.0,12.0,77,0.00,,,0.00,0,Wunderground v.1.15,2013-04-10 05:13:00,
2013-04-10 00:14:00,74.2,66.5,29.68,SE,140,10.0,12.0,77,0.00,,,0.00,0,Wunderground v.1.15,2013-04-10 05:14:00,
2013-04-10 00:19:00,74.1,66.4,29.68,ESE,105,10.0,12.0,77,0.00,,,0.00,0,Wunderground v.1.15,2013-04-10 05:19:00,
2013-04-10 00:20:00,74.1,66.4,29.68,ESE,121,9.0,11.0,77,0.00,,,0.00,0,Wunderground v.1.15,2013-04-10 05:20:00,
2013-04-10 00:21:00,74.1,66.4,29.68,SE,136,9.0,11.0,77,0.00,,,0.00,0,Wunderground v.1.15,2013-04-10 05:21:00,
2013-04-10 00:22:00,74.0,66.3,29.68,SSE,152,9.0,11.0,77,0.00,,,0.00,0,Wunderground v.1.15,2013-04-10 05:22:00,
2013-04-10 00:27:00,74.0,66.3,29.68,SE,146,8.0,11.0,77,0.00,,,0.00,0,Wunderground v.1.15,2013-04-10 05:27:00,
2013-04-10 00:28:00,73.9,66.2,29.68,SE,129,8.0,13.0,77,0.00,,,0.00,0,Wunderground v.1.15,2013-04-10 05:28:00,
2013-04-10 00:32:00,73.8,66.5,29.68,SE,145,8.0,10.0,78,0.00,,,0.00,0,Wunderground v.1.15,2013-04-10 05:32:00,
2013-04-10 00:33:00,73.8,66.5,29.68,SE,140,9.0,10.0,78,0.00,,,0.00,0,Wunderground v.1.15,2013-04-10 05:33:00,
2013-04-10 00:35:00,73.7,66.4,29.68,SE,137,9.0,10.0,78,0.00,,,0.00,0,Wunderground v.1.15,2013-04-10 05:35:00,
2013-04-10 00:36:00,73.7,66.4,29.68,SE,146,9.0,10.0,78,0.00,,,0.00,0,Wunderground v.1.15,2013-04-10 05:36:00,
2013-04-10 00:38:00,73.6,66.3,29.68,SSE,157,9.0,16.0,78,0.00,,,0.00,0,Wunderground v.1.15,2013-04-10 05:38:00,
2013-04-10 00:41:00,73.5,66.2,29.68,SE,129,10.0,13.0,78,0.00,,,0.00,0,Wunderground v.1.15,2013-04-10 05:41:00,
2013-04-10 00:42:00,73.5,66.2,29.68,SE,130,10.0,13.0,78,0.00,,,0.00,0,Wunderground v.1.15,2013-04-10 05:42:00,
2013-04-10 00:43:00,73.5,66.2,29.68,SE,132,10.0,13.0,78,0.00,,,0.00,0,Wunderground v.1.15,2013-04-10 05:43:00,
2013-04-10 00:46:00,73.4,66.1,29.67,SE,134,11.0,13.0,78,0.00,,,0.00,0,Wunderground v.1.15,2013-04-10 05:46:00,
2013-04-10 00:48:00,73.4,66.5,29.67,SE,142,11.0,13.0,79,0.00,,,0.00,0,Wunderground v.1.15,2013-04-10 05:48:00,
2013-04-10 00:50:00,73.3,66.4,29.67,SE,132,10.0,15.0,79,0.00,,,0.00,0,Wunderground v.1.15,2013-04-10 05:50:00,
2013-04-10 00:52:00,73.2,66.3,29.67,SSE,148,11.0,15.0,79,0.00,,,0.00,0,Wunderground v.1.15,2013-04-10 05:52:00,
2013-04-10 00:53:00,73.2,66.3,29.67,SE,129,11.0,15.0,79,0.00,,,0.00,0,Wunderground v.1.15,2013-04-10 05:53:00,
2013-04-10 00:55:00,73.1,66.2,29.66,ESE,111,11.0,15.0,79,0.00,,,0.00,0,Wunderground v.1.15,2013-04-10 05:55:00,
2013-04-10 00:58:00,73.0,66.5,29.66,ESE,121,11.0,15.0,80,0.00,,,0.00,0,Wunderground v.1.15,2013-04-10 05:58:00,
2013-04-10 00:59:00,72.9,66.4,29.66,SE,142,11.0,15.0,80,0.00,,,0.00,0,Wunderground v.1.15,2013-04-10 05:59:00,
2013-04-10 01:03:00,72.8,66.3,29.66,SE,124,10.0,13.0,80,0.00,,,0.00,0,Wunderground v.1.15,2013-04-10 06:03:00,
2013-04-10 01:04:00,72.8,66.3,29.66,SE,145,10.0,13.0,80,0.00,,,0.00,0,Wunderground v.1.15,2013-04-10 06:04:00,
2013-04-10 01:05:00,72.7,66.2,29.66,SSE,153,10.0,13.0,80,0.00,,,0.00,0,Wunderground v.1.15,2013-04-10 06:05:00,
2013-04-10 01:06:00,72.8,66.3,29.66,SE,137,10.0,13.0,80,0.00,,,0.00,0,Wunderground v.1.15,2013-04-10 06:06:00,
2013-04-10 01:10:00,72.6,66.1,29.66,SE,126,11.0,11.0,80,0.00,,,0.00,0,Wunderground v.1.15,2013-04-10 06:10:00,
2013-04-10 01:11:00,72.6,66.1,29.66,SE,128,11.0,11.0,80,0.00,,,0.00,0,Wunderground v.1.15,2013-04-10 06:11:00,
2013-04-10 01:12:00,72.6,66.1,29.66,ESE,120,11.0,16.0,80,0.00,,,0.00,0,Wunderground v.1.15,2013-04-10 06:12:00,
2013-04-10 01:15:00,72.5,66.3,29.66,SE,136,11.0,16.0,81,0.00,,,0.00,0,Wunderground v.1.15,2013-04-10 06:15:00,
2013-04-10 01:18:00,72.5,66.3,29.66,SSE,148,11.0,16.0,81,0.00,,,0.00,0,Wunderground v.1.15,2013-04-10 06:18:00,
2013-04-10 01:19:00,72.4,66.2,29.66,SSE,148,11.0,16.0,81,0.00,,,0.00,0,Wunderground v.1.15,2013-04-10 06:19:00,
2013-04-10 01:22:00,72.4,66.2,29.66,SE,131,11.0,15.0,81,0.00,,,0.00,0,Wunderground v.1.15,2013-04-10 06:22:00,
2013-04-10 01:27:00,72.3,66.1,29.66,SSE,152,11.0,15.0,81,0.00,,,0.00,0,Wunderground v.1.15,2013-04-10 06:27:00,
2013-04-10 01:29:00,72.2,66.0,29.66,SE,130,11.0,15.0,81,0.00,,,0.00,0,Wunderground v.1.15,2013-04-10 06:29:00,
2013-04-10 01:30:00,72.2,66.4,29.66,SSE,147,11.0,12.0,82,0.00,,,0.00,0,Wunderground v.1.15,2013-04-10 06:30:00,
2013-04-10 01:32:00,72.2,66.0,29.66,ESE,121,11.0,14.0,81,0.00,,,0.00,0,Wunderground v.1.15,2013-04-10 06:32:00,
2013-04-10 01:34:00,72.2,66.0,29.66,SE,126,10.0,14.0,81,0.00,,,0.00,0,Wunderground v.1.15,2013-04-10 06:34:00,
2013-04-10 01:36:00,72.2,66.4,29.66,SSE,155,10.0,14.0,82,0.00,,,0.00,0,Wunderground v.1.15,2013-04-10 06:36:00,
2013-04-10 01:37:00,72.2,66.4,29.66,SSE,148,10.0,14.0,82,0.00,,,0.00,0,Wunderground v.1.15,2013-04-10 06:37:00,
2013-04-10 01:40:00,72.2,66.4,29.66,ESE,123,9.0,12.0,82,0.00,,,0.00,0,Wunderground v.1.15,2013-04-10 06:40:00,
2013-04-10 01:43:00,72.3,66.5,29.66,SE,136,9.0,15.0,82,0.00,,,0.00,0,Wunderground v.1.15,2013-04-10 06:43:00,
2013-04-10 01:45:00,72.3,66.5,29.66,SE,142,9.0,15.0,82,0.00,,,0.00,0,Wunderground v.1.15,2013-04-10 06:45:00,
2013-04-10 01:48:00,72.3,66.5,29.67,SSE,151,10.0,17.0,82,0.00,,,0.00,0,Wunderground v.1.15,2013-04-10 06:48:00,
2013-04-10 01:51:00,72.3,66.5,29.67,SE,140,11.0,15.0,82,0.00,,,0.00,0,Wunderground v.1.15,2013-04-10 06:51:00,
2013-04-10 01:53:00,72.3,66.5,29.67,SE,138,11.0,15.0,82,0.00,,,0.00,0,Wunderground v.1.15,2013-04-10 06:53:00,
2013-04-10 01:55:00,72.3,66.5,29.67,SSE,152,10.0,15.0,82,0.00,,,0.00,0,Wunderground v.1.15,2013-04-10 06:55:00,
2013-04-10 01:58:00,72.3,66.5,29.67,South,179,10.0,15.0,82,0.00,,,0.00,0,Wunderground v.1.15,2013-04-10 06:58:00,
2013-04-10 02:02:00,72.3,66.5,29.67,SSE,152,8.0,9.0,82,0.00,,,0.00,0,Wunderground v.1.15,2013-04-10 07:02:00,
2013-04-10 02:03:00,72.3,66.5,29.67,SSE,161,8.0,9.0,82,0.00,,,0.00,0,Wunderground v.1.15,2013-04-10 07:03:00,
2013-04-10 02:05:00,72.2,66.4,29.67,SE,129,7.0,9.0,82,0.00,,,0.00,0,Wunderground v.1.15,2013-04-10 07:05:00,
2013-04-10 02:07:00,72.2,66.4,29.67,SSE,151,7.0,9.0,82,0.00,,,0.00,0,Wunderground v.1.15,2013-04-10 07:07:00,
2013-04-10 02:08:00,72.2,66.4,29.67,South,179,7.0,9.0,82,0.00,,,0.00,0,Wunderground v.1.15,2013-04-10 07:08:00,
2013-04-10 02:10:00,72.2,66.4,29.67,SSE,151,7.0,10.0,82,0.00,,,0.00,0,Wunderground v.1.15,2013-04-10 07:10:00,
2013-04-10 02:13:00,72.2,66.4,29.67,SSE,157,7.0,8.0,82,0.00,,,0.00,0,Wunderground v.1.15,2013-04-10 07:13:00,
2013-04-10 02:14:00,72.2,66.4,29.68,SSE,167,7.0,11.0,82,0.00,,,0.00,0,Wunderground v.1.15,2013-04-10 07:14:00,
2013-04-10 02:15:00,72.2,66.4,29.68,South,177,8.0,11.0,82,0.00,,,0.00,0,Wunderground v.1.15,2013-04-10 07:15:00,
2013-04-10 02:19:00,72.2,66.4,29.68,SSE,159,7.0,11.0,82,0.00,,,0.00,0,Wunderground v.1.15,2013-04-10 07:19:00,
2013-04-10 02:21:00,72.2,66.4,29.68,SE,138,6.0,6.0,82,0.00,,,0.00,0,Wunderground v.1.15,2013-04-10 07:21:00,
2013-04-10 02:25:00,72.2,66.4,29.68,SW,232,4.0,6.0,82,0.00,,,0.00,0,Wunderground v.1.15,2013-04-10 07:25:00,
2013-04-10 02:26:00,72.2,66.4,29.68,South,187,4.0,6.0,82,0.00,,,0.00,0,Wunderground v.1.15,2013-04-10 07:26:00,
2013-04-10 02:27:00,72.2,66.4,29.68,South,180,4.0,6.0,82,0.00,,,0.00,0,Wunderground v.1.15,2013-04-10 07:27:00,
2013-04-10 02:28:00,72.2,66.4,29.68,SSE,164,4.0,6.0,82,0.00,,,0.00,0,Wunderground v.1.15,2013-04-10 07:28:00,
2013-04-10 02:33:00,72.2,66.4,29.68,SE,141,4.0,7.0,82,0.00,,,0.00,0,Wunderground v.1.15,2013-04-10 07:33:00,
2013-04-10 02:34:00,72.2,66.4,29.68,SSE,163,5.0,7.0,82,0.00,,,0.00,0,Wunderground v.1.15,2013-04-10 07:34:00,
2013-04-10 02:35:00,72.2,66.7,29.68,South,188,5.0,7.0,83,0.00,,,0.00,0,Wunderground v.1.15,2013-04-10 07:35:00,
2013-04-10 02:37:00,72.2,66.7,29.68,SSE,168,4.0,7.0,83,0.00,,,0.00,0,Wunderground v.1.15,2013-04-10 07:37:00,
2013-04-10 02:38:00,72.2,66.7,29.68,SSE,163,4.0,7.0,83,0.00,,,0.00,0,Wunderground v.1.15,2013-04-10 07:38:00,
2013-04-10 02:39:00,72.2,66.7,29.68,South,175,4.0,7.0,83,0.00,,,0.00,0,Wunderground v.1.15,2013-04-10 07:39:00,
2013-04-10 02:43:00,72.3,66.5,29.68,SSE,161,3.0,6.0,82,0.00,,,0.00,0,Wunderground v.1.15,2013-04-10 07:43:00,
2013-04-10 02:44:00,72.3,66.5,29.68,SSE,161,3.0,6.0,82,0.00,,,0.00,0,Wunderground v.1.15,2013-04-10 07:44:00,
2013-04-10 02:45:00,72.3,66.5,29.68,South,176,3.0,6.0,82,0.00,,,0.00,0,Wunderground v.1.15,2013-04-10 07:45:00,
2013-04-10 02:50:00,72.3,66.8,29.68,WSW,244,3.0,7.0,83,0.00,,,0.00,0,Wunderground v.1.15,2013-04-10 07:50:00,
2013-04-10 02:54:00,70.1,57.8,29.69,WNW,290,4.0,13.0,65,0.00,,,0.00,0,Wunderground v.1.15,2013-04-10 07:54:00,
2013-04-10 02:55:00,67.2,52.8,29.69,WNW,288,5.0,13.0,60,0.00,,,0.00,0,Wunderground v.1.15,2013-04-10 07:55:00,
2013-04-10 02:57:00,65.2,51.4,29.69,West,281,8.0,13.0,61,0.00,,,0.00,0,Wunderground v.1.15,2013-04-10 07:57:00,
2013-04-10 02:58:00,64.1,51.2,29.69,WNW,284,9.0,13.0,63,0.00,,,0.00,0,Wunderground v.1.15,2013-04-10 07:58:00,
2013-04-10 03:03:00,60.7,49.7,29.70,NW,311,12.0,12.0,67,0.00,,,0.00,0,Wunderground v.1.15,2013-04-10 08:03:00,
2013-04-10 03:04:00,60.4,49.8,29.70,NW,307,12.0,14.0,68,0.00,,,0.00,0,Wunderground v.1.15,2013-04-10 08:04:00,
2013-04-10 03:05:00,59.8,49.6,29.70,NW,322,12.0,14.0,69,0.00,,,0.00,0,Wunderground v.1.15,2013-04-10 08:05:00,
2013-04-10 03:09:00,57.9,48.9,29.70,WNW,292,13.0,14.0,72,0.00,,,0.00,0,Wunderground v.1.15,2013-04-10 08:09:00,
2013-04-10 03:10:00,57.4,48.8,29.71,WNW,303,13.0,14.0,73,0.00,,,0.00,0,Wunderground v.1.15,2013-04-10 08:10:00,
2013-04-10 03:12:00,56.9,49.1,29.70,NW,311,13.0,17.0,75,0.00,,,0.00,0,Wunderground v.1.15,2013-04-10 08:12:00,
2013-04-10 03:14:00,56.4,48.9,29.70,WNW,289,13.0,17.0,76,0.00,,,0.00,0,Wunderground v.1.15,2013-04-10 08:14:00,
2013-04-10 03:18:00,55.3,48.6,29.72,West,272,12.0,17.0,78,0.00,,,0.00,0,Wunderground v.1.15,2013-04-10 08:18:00,
2013-04-10 03:19:00,54.9,48.2,29.71,NW,305,12.0,17.0,78,0.00,,,0.00,0,Wunderground v.1.15,2013-04-10 08:19:00,
2013-04-10 03:22:00,54.3,47.9,29.69,NW,309,12.0,13.0,79,0.00,,,0.00,0,Wunderground v.1.15,2013-04-10 08:22:00,
2013-04-10 03:25:00,53.7,48.0,29.72,NW,311,13.0,13.0,81,0.00,,,0.00,0,Wunderground v.1.15,2013-04-10 08:25:00,
2013-04-10 03:30:00,53.0,47.3,29.70,WNW,286,12.0,16.0,81,0.00,,,0.00,0,Wunderground v.1.15,2013-04-10 08:30:00,
2013-04-10 03:31:00,53.0,47.7,29.71,NW,306,12.0,12.0,82,0.00,,,0.00,0,Wunderground v.1.15,2013-04-10 08:31:00,
2013-04-10 03:33:00,52.8,47.5,29.71,NW,309,11.0,12.0,82,0.00,,,0.00,0,Wunderground v.1.15,2013-04-10 08:33:00,
2013-04-10 03:36:00,52.4,47.1,29.71,NW,306,11.0,22.0,82,0.00,,,0.00,0,Wunderground v.1.15,2013-04-10 08:36:00,
2013-04-10 03:39:00,51.9,46.9,29.71,NNW,330,11.0,22.0,83,0.00,,,0.00,0,Wunderground v.1.15,2013-04-10 08:39:00,
2013-04-10 03:40:00,51.6,46.6,29.71,WNW,298,11.0,22.0,83,0.00,,,0.00,0,Wunderground v.1.15,2013-04-10 08:40:00,
2013-04-10 03:41:00,51.5,46.5,29.70,NW,317,12.0,13.0,83,0.00,,,0.00,0,Wunderground v.1.15,2013-04-10 08:41:00,
2013-04-10 03:45:00,49.9,44.9,29.70,WNW,296,14.0,26.0,83,0.00,,,0.01,0,Wunderground v.1.15,2013-04-10 08:45:00,
2013-04-10 03:46:00,49.7,44.4,29.70,NW,319,14.0,26.0,82,0.00,,,0.01,0,Wunderground v.1.15,2013-04-10 08:46:00,
2013-04-10 03:47:00,49.4,44.5,29.71,NW,324,14.0,26.0,83,0.00,,,0.01,0,Wunderground v.1.15,2013-04-10 08:47:00,
2013-04-10 03:53:00,47.9,43.3,29.71,NW,317,14.0,15.0,84,0.00,,,0.01,0,Wunderground v.1.15,2013-04-10 08:53:00,
2013-04-10 03:55:00,47.6,43.0,29.71,NW,315,14.0,15.0,84,0.00,,,0.01,0,Wunderground v.1.15,2013-04-10 08:55:00,
2013-04-10 03:57:00,47.4,42.8,29.71,NW,304,14.0,15.0,84,0.00,,,0.01,0,Wunderground v.1.15,2013-04-10 08:57:00,
2013-04-10 03:59:00,47.3,42.7,29.71,WNW,295,12.0,17.0,84,0.00,,,0.01,0,Wunderground v.1.15,2013-04-10 08:59:00,
2013-04-10 04:01:00,47.2,42.6,29.72,NW,305,11.0,11.0,84,0.00,,,0.01,0,Wunderground v.1.15,2013-04-10 09:01:00,
2013-04-10 04:02:00,47.2,42.6,29.72,WNW,300,11.0,16.0,84,0.00,,,0.01,0,Wunderground v.1.15,2013-04-10 09:02:00,
2013-04-10 04:04:00,47.0,42.4,29.72,WNW,294,10.0,16.0,84,0.00,,,0.01,0,Wunderground v.1.15,2013-04-10 09:04:00,
2013-04-10 04:08:00,47.0,42.7,29.73,NW,321,10.0,16.0,85,0.00,,,0.01,0,Wunderground v.1.15,2013-04-10 09:08:00,
2013-04-10 04:09:00,47.0,42.7,29.73,NW,320,10.0,16.0,85,0.00,,,0.01,0,Wunderground v.1.15,2013-04-10 09:09:00,
2013-04-10 04:14:00,46.9,42.3,29.73,West,273,10.0,16.0,84,0.00,,,0.01,0,Wunderground v.1.15,2013-04-10 09:14:00,
2013-04-10 04:15:00,46.8,42.2,29.72,WNW,296,10.0,16.0,84,0.00,,,0.01,0,Wunderground v.1.15,2013-04-10 09:15:00,
2013-04-10 04:17:00,46.7,42.1,29.72,WNW,292,10.0,16.0,84,0.00,,,0.01,0,Wunderground v.1.15,2013-04-10 09:17:00,
2013-04-10 04:19:00,46.4,41.5,29.72,NW,319,11.0,16.0,83,0.00,,,0.01,0,Wunderground v.1.15,2013-04-10 09:19:00,
2013-04-10 04:22:00,46.2,41.6,29.73,WNW,302,12.0,14.0,84,0.00,,,0.01,0,Wunderground v.1.15,2013-04-10 09:22:00,
2013-04-10 04:23:00,46.1,41.5,29.73,WNW,298,12.0,14.0,84,0.00,,,0.01,0,Wunderground v.1.15,2013-04-10 09:23:00,
2013-04-10 04:27:00,46.1,41.5,29.73,WNW,292,11.0,14.0,84,0.00,,,0.01,0,Wunderground v.1.15,2013-04-10 09:27:00,
2013-04-10 04:29:00,46.1,41.5,29.74,WNW,302,11.0,14.0,84,0.00,,,0.01,0,Wunderground v.1.15,2013-04-10 09:29:00,
2013-04-10 04:30:00,46.2,41.6,29.74,West,278,11.0,14.0,84,0.00,,,0.01,0,Wunderground v.1.15,2013-04-10 09:30:00,
2013-04-10 04:32:00,46.2,41.9,29.74,WNW,295,10.0,14.0,85,0.00,,,0.01,0,Wunderground v.1.15,2013-04-10 09:32:00,
2013-04-10 04:36:00,45.9,41.3,29.74,NW,322,10.0,14.0,84,0.00,,,0.02,0,Wunderground v.1.15,2013-04-10 09:36:00,
2013-04-10 04:37:00,45.9,41.3,29.74,NW,311,10.0,14.0,84,0.00,,,0.02,0,Wunderground v.1.15,2013-04-10 09:37:00,
2013-04-10 04:38:00,45.8,41.5,29.74,NW,314,10.0,14.0,85,0.00,,,0.02,0,Wunderground v.1.15,2013-04-10 09:38:00,
2013-04-10 04:41:00,45.8,41.5,29.74,NW,315,9.0,9.0,85,0.00,,,0.02,0,Wunderground v.1.15,2013-04-10 09:41:00,
2013-04-10 04:45:00,45.8,41.5,29.74,NW,319,9.0,13.0,85,0.00,,,0.02,0,Wunderground v.1.15,2013-04-10 09:45:00,
2013-04-10 04:47:00,45.8,41.5,29.74,NW,309,8.0,13.0,85,0.00,,,0.02,0,Wunderground v.1.15,2013-04-10 09:47:00,
2013-04-10 04:48:00,45.7,41.4,29.74,NW,313,9.0,13.0,85,0.00,,,0.02,0,Wunderground v.1.15,2013-04-10 09:48:00,
2013-04-10 04:51:00,45.8,41.5,29.75,WNW,290,9.0,9.0,85,0.00,,,0.02,0,Wunderground v.1.15,2013-04-10 09:51:00,
2013-04-10 04:52:00,45.8,41.5,29.75,NW,321,9.0,11.0,85,0.00,,,0.02,0,Wunderground v.1.15,2013-04-10 09:52:00,
2013-04-10 04:53:00,45.8,41.5,29.74,WNW,293,10.0,12.0,85,0.00,,,0.02,0,Wunderground v.1.15,2013-04-10 09:53:00,
2013-04-10 04:55:00,45.8,41.5,29.74,NW,309,9.0,12.0,85,0.00,,,0.02,0,Wunderground v.1.15,2013-04-10 09:55:00,
2013-04-10 04:58:00,45.8,41.5,29.74,WNW,286,10.0,16.0,85,0.00,,,0.02,0,Wunderground v.1.15,2013-04-10 09:58:00,
2013-04-10 04:59:00,45.8,41.5,29.74,WNW,295,10.0,16.0,85,0.00,,,0.02,0,Wunderground v.1.15,2013-04-10 09:59:00,
2013-04-10 05:03:00,45.9,41.9,29.75,WNW,302,8.0,9.0,86,0.00,,,0.02,0,Wunderground v.1.15,2013-04-10 10:03:00,
2013-04-10 05:04:00,45.8,41.5,29.76,WNW,299,8.0,9.0,85,0.00,,,0.02,0,Wunderground v.1.15,2013-04-10 10:04:00,
2013-04-10 05:09:00,45.5,41.3,29.75,WNW,300,8.0,19.0,85,0.00,,,0.02,0,Wunderground v.1.15,2013-04-10 10:09:00,
2013-04-10 05:10:00,45.5,41.3,29.76,WNW,301,8.0,19.0,85,0.00,,,0.02,0,Wunderground v.1.15,2013-04-10 10:10:00,
2013-04-10 05:12:00,45.4,41.2,29.76,WNW,302,8.0,8.0,85,0.00,,,0.02,0,Wunderground v.1.15,2013-04-10 10:12:00,
2013-04-10 05:13:00,45.5,41.3,29.77,NW,320,8.0,14.0,85,0.00,,,0.02,0,Wunderground v.1.15,2013-04-10 10:13:00,
2013-04-10 05:14:00,45.4,41.2,29.76,NW,320,9.0,14.0,85,0.00,,,0.02,0,Wunderground v.1.15,2013-04-10 10:14:00,
2013-04-10 05:19:00,45.3,41.1,29.78,NW,311,9.0,14.0,85,0.00,,,0.02,0,Wunderground v.1.15,2013-04-10 10:19:00,
2013-04-10 05:20:00,45.3,41.1,29.77,WNW,303,9.0,14.0,85,0.00,,,0.02,0,Wunderground v.1.15,2013-04-10 10:20:00,
2013-04-10 05:25:00,45.2,41.0,29.77,NW,308,10.0,14.0,85,0.00,,,0.02,0,Wunderground v.1.15,2013-04-10 10:25:00,
2013-04-10 05:26:00,45.2,41.0,29.77,NW,315,10.0,16.0,85,0.00,,,0.02,0,Wunderground v.1.15,2013-04-10 10:26:00,
2013-04-10 05:30:00,45.2,41.0,29.79,NW,304,11.0,16.0,85,0.00,,,0.02,0,Wunderground v.1.15,2013-04-10 10:30:00,
2013-04-10 05:32:00,45.2,40.7,29.79,WNW,287,11.0,12.0,84,0.00,,,0.02,0,Wunderground v.1.15,2013-04-10 10:32:00,
2013-04-10 05:35:00,45.1,40.6,29.79,West,274,11.0,17.0,84,0.00,,,0.02,0,Wunderground v.1.15,2013-04-10 10:35:00,
2013-04-10 05:37:00,45.0,40.5,29.79,NW,317,12.0,17.0,84,0.00,,,0.02,0,Wunderground v.1.15,2013-04-10 10:37:00,
2013-04-10 05:39:00,45.0,40.5,29.80,WNW,292,12.0,17.0,84,0.00,,,0.02,0,Wunderground v.1.15,2013-04-10 10:39:00,
2013-04-10 05:42:00,45.0,40.5,29.80,WNW,290,12.0,12.0,84,0.00,,,0.02,0,Wunderground v.1.15,2013-04-10 10:42:00,
2013-04-10 05:43:00,45.0,40.8,29.80,WNW,302,11.0,12.0,85,0.00,,,0.02,0,Wunderground v.1.15,2013-04-10 10:43:00,
2013-04-10 05:45:00,44.9,40.4,29.80,NW,304,11.0,12.0,84,0.00,,,0.02,0,Wunderground v.1.15,2013-04-10 10:45:00,
2013-04-10 05:48:00,44.9,40.4,29.81,NW,315,10.0,12.0,84,0.00,,,0.02,0,Wunderground v.1.15,2013-04-10 10:48:00,
2013-04-10 05:52:00,44.6,40.1,29.81,West,274,11.0,19.0,84,0.00,,,0.02,0,Wunderground v.1.15,2013-04-10 10:52:00,
2013-04-10 05:53:00,44.5,40.3,29.81,WNW,303,12.0,19.0,85,0.00,,,0.02,0,Wunderground v.1.15,2013-04-10 10:53:00,
2013-04-10 05:55:00,44.5,40.3,29.81,WNW,300,12.0,19.0,85,0.00,,,0.02,0,Wunderground v.1.15,2013-04-10 10:55:00,
2013-04-10 05:58:00,44.4,40.2,29.81,NW,309,12.0,19.0,85,0.00,,,0.02,0,Wunderground v.1.15,2013-04-10 10:58:00,
2013-04-10 05:59:00,44.3,40.4,29.81,NW,319,12.0,19.0,86,0.00,,,0.02,0,Wunderground v.1.15,2013-04-10 10:59:00,
2013-04-10 06:00:00,44.3,40.4,29.82,NW,313,12.0,12.0,86,0.00,,,0.02,0,Wunderground v.1.15,2013-04-10 11:00:00,
2013-04-10 06:04:00,44.2,40.3,29.81,NW,307,11.0,18.0,86,0.00,,,0.02,0,Wunderground v.1.15,2013-04-10 11:04:00,
2013-04-10 06:06:00,44.1,40.2,29.81,NNW,333,12.0,18.0,86,0.00,,,0.02,0,Wunderground v.1.15,2013-04-10 11:06:00,
2013-04-10 06:07:00,44.1,40.2,29.81,NNW,331,13.0,18.0,86,0.00,,,0.02,0,Wunderground v.1.15,2013-04-10 11:07:00,
2013-04-10 06:09:00,44.1,40.5,29.81,NW,308,12.0,18.0,87,0.00,,,0.02,0,Wunderground v.1.15,2013-04-10 11:09:00,
2013-04-10 06:13:00,44.0,40.4,29.82,NNW,329,12.0,13.0,87,0.00,,,0.02,0,Wunderground v.1.15,2013-04-10 11:13:00,
2013-04-10 06:14:00,44.0,40.4,29.82,NW,316,12.0,13.0,87,0.00,,,0.02,0,Wunderground v.1.15,2013-04-10 11:14:00,
2013-04-10 06:18:00,44.0,40.4,29.82,WNW,302,11.0,20.0,87,0.00,,,0.02,0,Wunderground v.1.15,2013-04-10 11:18:00,
2013-04-10 06:19:00,44.0,40.1,29.82,WNW,292,11.0,20.0,86,0.00,,,0.02,0,Wunderground v.1.15,2013-04-10 11:19:00,
2013-04-10 06:20:00,44.0,40.4,29.82,NW,313,11.0,20.0,87,0.00,,,0.02,0,Wunderground v.1.15,2013-04-10 11:20:00,
2013-04-10 06:23:00,44.0,40.1,29.81,NW,319,11.0,20.0,86,0.00,,,0.02,0,Wunderground v.1.15,2013-04-10 11:23:00,
2013-04-10 06:25:00,43.9,40.0,29.82,NNW,339,12.0,20.0,86,0.00,,,0.02,0,Wunderground v.1.15,2013-04-10 11:25:00,
2013-04-10 06:29:00,43.9,40.0,29.82,WNW,285,11.0,20.0,86,0.00,,,0.02,0,Wunderground v.1.15,2013-04-10 11:29:00,
2013-04-10 06:30:00,43.9,40.0,29.82,North,360,11.0,11.0,86,0.00,,,0.02,0,Wunderground v.1.15,2013-04-10 11:30:00,
2013-04-10 06:35:00,44.0,40.1,29.82,NW,319,11.0,18.0,86,0.00,,,0.02,0,Wunderground v.1.15,2013-04-10 11:35:00,
2013-04-10 06:37:00,44.0,40.1,29.82,NNW,344,11.0,18.0,86,0.00,,,0.02,0,Wunderground v.1.15,2013-04-10 11:37:00,
2013-04-10 06:40:00,44.0,40.1,29.81,NW,323,11.0,13.0,86,0.00,,,0.02,0,Wunderground v.1.15,2013-04-10 11:40:00,
2013-04-10 06:41:00,44.0,40.1,29.82,North,349,11.0,13.0,86,0.00,,,0.02,0,Wunderground v.1.15,2013-04-10 11:41:00,
2013-04-10 06:45:00,44.0,40.1,29.82,NW,305,11.0,18.0,86,0.00,,,0.02,0,Wunderground v.1.15,2013-04-10 11:45:00,
2013-04-10 06:47:00,43.9,40.0,29.82,North,349,11.0,18.0,86,0.00,,,0.02,0,Wunderground v.1.15,2013-04-10 11:47:00,
2013-04-10 06:49:00,43.9,40.0,29.82,WNW,297,12.0,18.0,86,0.00,,,0.02,0,Wunderground v.1.15,2013-04-10 11:49:00,
2013-04-10 06:52:00,44.0,40.1,29.82,North,355,11.0,14.0,86,0.00,,,0.02,0,Wunderground v.1.15,2013-04-10 11:52:00,
2013-04-10 06:55:00,43.9,40.0,29.83,NW,307,11.0,17.0,86,0.00,,,0.02,0,Wunderground v.1.15,2013-04-10 11:55:00,
2013-04-10 06:57:00,44.0,40.1,29.82,NW,319,11.0,17.0,86,0.00,,,0.02,0,Wunderground v.1.15,2013-04-10 11:57:00,
2013-04-10 06:59:00,44.0,40.1,29.83,NW,326,10.0,17.0,86,0.00,,,0.02,0,Wunderground v.1.15,2013-04-10 11:59:00,
2013-04-10 07:00:00,44.0,40.4,29.83,NNW,327,10.0,10.0,87,0.00,,,0.02,0,Wunderground v.1.15,2013-04-10 12:00:00,
2013-04-10 07:04:00,44.0,40.4,29.83,NW,313,10.0,13.0,87,0.00,,,0.02,0,Wunderground v.1.15,2013-04-10 12:04:00,
2013-04-10 07:05:00,44.0,40.4,29.82,NW,323,9.0,13.0,87,0.00,,,0.02,0,Wunderground v.1.15,2013-04-10 12:05:00,
2013-04-10 07:07:00,44.0,40.4,29.82,NNE,12,9.0,13.0,87,0.00,,,0.02,0,Wunderground v.1.15,2013-04-10 12:07:00,
2013-04-10 07:11:00,44.0,40.4,29.83,NW,326,9.0,9.0,87,0.00,,,0.02,0,Wunderground v.1.15,2013-04-10 12:11:00,
2013-04-10 07:12:00,44.0,40.4,29.83,NNW,341,9.0,13.0,87,0.00,,,0.02,0,Wunderground v.1.15,2013-04-10 12:12:00,
2013-04-10 07:15:00,44.0,40.4,29.83,NNW,337,8.0,15.0,87,0.00,,,0.02,0,Wunderground v.1.15,2013-04-10 12:15:00,
2013-04-10 07:16:00,44.0,40.1,29.83,NNW,338,9.0,15.0,86,0.00,,,0.02,0,Wunderground v.1.15,2013-04-10 12:16:00,
2013-04-10 07:17:00,43.9,40.0,29.83,WNW,298,9.0,15.0,86,0.00,,,0.02,0,Wunderground v.1.15,2013-04-10 12:17:00,
2013-04-10 07:18:00,43.9,40.0,29.83,NNW,336,10.0,15.0,86,0.00,,,0.02,0,Wunderground v.1.15,2013-04-10 12:18:00,
2013-04-10 07:20:00,43.7,39.8,29.83,NW,305,11.0,14.0,86,0.00,,,0.02,0,Wunderground v.1.15,2013-04-10 12:20:00,
2013-04-10 07:23:00,43.6,40.0,29.83,NNW,348,11.0,14.0,87,0.00,,,0.02,0,Wunderground v.1.15,2013-04-10 12:23:00,
2013-04-10 07:25:00,43.6,40.0,29.83,NNW,333,13.0,17.0,87,0.00,,,0.03,0,Wunderground v.1.15,2013-04-10 12:25:00,
2013-04-10 07:26:00,43.5,39.9,29.83,NNW,341,13.0,17.0,87,0.00,,,0.03,0,Wunderground v.1.15,2013-04-10 12:26:00,
2013-04-10 07:27:00,43.5,39.9,29.83,NW,319,13.0,17.0,87,0.00,,,0.03,0,Wunderground v.1.15,2013-04-10 12:27:00,
2013-04-10 07:29:00,43.5,39.9,29.85,NW,310,13.0,17.0,87,0.00,,,0.03,0,Wunderground v.1.15,2013-04-10 12:29:00,
2013-04-10 07:32:00,43.4,39.8,29.85,North,355,13.0,18.0,87,0.00,,,0.03,7,Wunderground v.1.15,2013-04-10 12:32:00,
2013-04-10 07:35:00,43.4,39.8,29.84,NW,309,12.0,18.0,87,0.00,,,0.03,7,Wunderground v.1.15,2013-04-10 12:35:00,
2013-04-10 07:36:00,43.4,39.8,29.84,NW,324,11.0,18.0,87,0.00,,,0.03,9,Wunderground v.1.15,2013-04-10 12:36:00,
2013-04-10 07:38:00,43.4,39.8,29.84,NW,323,11.0,18.0,87,0.05,,,0.04,12,Wunderground v.1.15,2013-04-10 12:38:00,
2013-04-10 07:40:00,43.3,39.7,29.83,North,360,10.0,10.0,87,0.27,,,0.05,14,Wunderground v.1.15,2013-04-10 12:40:00,
2013-04-10 07:42:00,43.1,39.5,29.84,NW,316,10.0,18.0,87,0.30,,,0.05,9,Wunderground v.1.15,2013-04-10 12:42:00,
2013-04-10 07:44:00,43.1,39.5,29.84,NNW,340,10.0,18.0,87,0.28,,,0.06,9,Wunderground v.1.15,2013-04-10 12:44:00,
2013-04-10 07:47:00,43.0,39.4,29.84,NW,307,11.0,18.0,87,0.61,,,0.07,7,Wunderground v.1.15,2013-04-10 12:47:00,
2013-04-10 07:48:00,42.9,39.3,29.84,NW,312,12.0,18.0,87,0.56,,,0.08,5,Wunderground v.1.15,2013-04-10 12:48:00,
2013-04-10 07:49:00,42.9,39.3,29.84,NW,317,12.0,18.0,87,0.29,,,0.08,7,Wunderground v.1.15,2013-04-10 12:49:00,
2013-04-10 07:52:00,42.9,39.6,29.84,NW,325,11.0,12.0,88,0.12,,,0.08,7,Wunderground v.1.15,2013-04-10 12:52:00,
2013-04-10 07:53:00,42.9,39.6,29.84,NNW,341,10.0,12.0,88,0.10,,,0.08,11,Wunderground v.1.15,2013-04-10 12:53:00,
2013-04-10 07:56:00,42.8,39.2,29.84,North,351,10.0,12.0,87,0.07,,,0.08,19,Wunderground v.1.15,2013-04-10 12:56:00,
2013-04-10 07:58:00,42.8,39.2,29.84,NNE,13,10.0,13.0,87,0.05,,,0.08,19,Wunderground v.1.15,2013-04-10 12:58:00,
2013-04-10 08:01:00,42.8,39.5,29.84,North,355,9.0,17.0,88,0.04,,,0.08,25,Wunderground v.1.15,2013-04-10 13:01:00,
2013-04-10 08:04:00,42.8,39.2,29.85,NW,321,10.0,18.0,87,0.00,,,0.08,28,Wunderground v.1.15,2013-04-10 13:04:00,
2013-04-10 08:07:00,42.8,39.2,29.85,NW,305,10.0,18.0,87,0.00,,,0.09,28,Wunderground v.1.15,2013-04-10 13:07:00,
2013-04-10 08:09:00,42.8,38.9,29.85,North,360,11.0,18.0,86,0.00,,,0.09,25,Wunderground v.1.15,2013-04-10 13:09:00,
2013-04-10 08:12:00,42.9,39.3,29.85,NW,319,11.0,12.0,87,0.00,,,0.09,21,Wunderground v.1.15,2013-04-10 13:12:00,
2013-04-10 08:13:00,42.9,39.3,29.84,NW,319,11.0,12.0,87,0.00,,,0.09,26,Wunderground v.1.15,2013-04-10 13:13:00,
2013-04-10 08:14:00,42.9,39.3,29.85,NNW,344,11.0,12.0,87,0.00,,,0.09,32,Wunderground v.1.15,2013-04-10 13:14:00,
2013-04-10 08:17:00,42.9,39.3,29.86,WNW,298,10.0,12.0,87,0.00,,,0.09,28,Wunderground v.1.15,2013-04-10 13:17:00,
2013-04-10 08:19:00,42.8,39.2,29.86,NNW,329,9.0,12.0,87,0.00,,,0.09,28,Wunderground v.1.15,2013-04-10 13:19:00,
2013-04-10 08:20:00,42.8,39.2,29.86,WNW,299,9.0,12.0,87,0.00,,,0.09,32,Wunderground v.1.15,2013-04-10 13:20:00,
2013-04-10 08:26:00,42.9,39.0,29.88,WNW,302,12.0,19.0,86,0.00,,,0.09,18,Wunderground v.1.15,2013-04-10 13:26:00,
2013-04-10 08:27:00,42.9,39.0,29.89,NNW,333,13.0,19.0,86,0.00,,,0.09,14,Wunderground v.1.15,2013-04-10 13:27:00,
2013-04-10 08:28:00,43.0,39.1,29.89,NW,314,13.0,19.0,86,0.00,,,0.09,11,Wunderground v.1.15,2013-04-10 13:28:00,
2013-04-10 08:33:00,43.1,39.2,29.88,WNW,300,11.0,16.0,86,0.00,,,0.09,9,Wunderground v.1.15,2013-04-10 13:33:00,
2013-04-10 08:34:00,43.1,39.2,29.88,WNW,290,10.0,16.0,86,0.00,,,0.09,11,Wunderground v.1.15,2013-04-10 13:34:00,
2013-04-10 08:35:00,43.0,39.1,29.88,WNW,302,10.0,16.0,86,0.00,,,0.09,9,Wunderground v.1.15,2013-04-10 13:35:00,
2013-04-10 08:40:00,43.0,39.1,29.88,West,279,10.0,16.0,86,0.00,,,0.09,12,Wunderground v.1.15,2013-04-10 13:40:00,
2013-04-10 08:41:00,43.0,39.1,29.88,NW,305,10.0,10.0,86,0.00,,,0.09,14,Wunderground v.1.15,2013-04-10 13:41:00,
2013-04-10 08:42:00,43.0,39.1,29.87,WNW,300,11.0,13.0,86,0.00,,,0.09,16,Wunderground v.1.15,2013-04-10 13:42:00,
2013-04-10 08:46:00,43.1,39.2,29.87,WNW,298,10.0,13.0,86,0.00,,,0.09,19,Wunderground v.1.15,2013-04-10 13:46:00,
2013-04-10 08:52:00,42.8,39.2,29.87,NW,324,10.0,11.0,87,0.00,,,0.10,23,Wunderground v.1.15,2013-04-10 13:52:00,
2013-04-10 08:53:00,42.8,39.2,29.87,NNW,342,10.0,11.0,87,0.00,,,0.10,25,Wunderground v.1.15,2013-04-10 13:53:00,
2013-04-10 08:54:00,42.8,39.2,29.86,WNW,301,10.0,11.0,87,0.00,,,0.10,26,Wunderground v.1.15,2013-04-10 13:54:00,
2013-04-10 08:56:00,42.7,39.1,29.85,NNW,327,10.0,11.0,87,0.00,,,0.10,30,Wunderground v.1.15,2013-04-10 13:56:00,
2013-04-10 08:59:00,42.5,38.9,29.86,NW,304,10.0,16.0,87,0.00,,,0.10,16,Wunderground v.1.15,2013-04-10 13:59:00,
2013-04-10 09:01:00,42.4,38.8,29.87,NW,311,11.0,14.0,87,0.00,,,0.10,11,Wunderground v.1.15,2013-04-10 14:01:00,
2013-04-10 09:04:00,42.3,38.7,29.87,NW,322,11.0,15.0,87,0.00,,,0.10,16,Wunderground v.1.15,2013-04-10 14:04:00,
2013-04-10 09:05:00,42.3,38.7,29.87,NW,317,11.0,15.0,87,0.00,,,0.10,18,Wunderground v.1.15,2013-04-10 14:05:00,
2013-04-10 09:08:00,42.2,38.6,29.86,WNW,284,11.0,19.0,87,0.00,,,0.10,21,Wunderground v.1.15,2013-04-10 14:08:00,
2013-04-10 09:09:00,42.1,38.5,29.86,NW,306,12.0,19.0,87,0.00,,,0.10,25,Wunderground v.1.15,2013-04-10 14:09:00,
2013-04-10 09:11:00,42.1,38.8,29.87,WNW,302,11.0,11.0,88,0.00,,,0.10,30,Wunderground v.1.15,2013-04-10 14:11:00,
2013-04-10 09:15:00,42.0,38.4,29.86,NNW,337,12.0,25.0,87,0.00,,,0.11,35,Wunderground v.1.15,2013-04-10 14:15:00,
2013-04-10 09:16:00,41.9,38.3,29.86,WNW,293,12.0,25.0,87,0.00,,,0.11,35,Wunderground v.1.15,2013-04-10 14:16:00,
2013-04-10 09:17:00,41.9,38.0,29.85,NW,319,12.0,25.0,86,0.00,,,0.11,35,Wunderground v.1.15,2013-04-10 14:17:00,
2013-04-10 09:22:00,41.7,37.8,29.86,NW,317,12.0,13.0,86,0.00,,,0.11,26,Wunderground v.1.15,2013-04-10 14:22:00,
2013-04-10 09:24:00,41.6,37.7,29.85,NNW,330,13.0,13.0,86,0.00,,,0.11,47,Wunderground v.1.15,2013-04-10 14:24:00,
2013-04-10 09:25:00,41.6,37.7,29.85,NW,311,12.0,13.0,86,0.00,,,0.11,40,Wunderground v.1.15,2013-04-10 14:25:00,
2013-04-10 09:26:00,41.6,38.0,29.85,NW,309,11.0,13.0,87,0.00,,,0.11,40,Wunderground v.1.15,2013-04-10 14:26:00,
2013-04-10 09:29:00,41.6,38.0,29.85,NW,313,10.0,13.0,87,0.00,,,0.11,37,Wunderground v.1.15,2013-04-10 14:29:00,
2013-04-10 09:31:00,41.6,38.0,29.86,NNW,333,10.0,10.0,87,0.00,,,0.11,40,Wunderground v.1.15,2013-04-10 14:31:00,
2013-04-10 09:32:00,41.6,38.0,29.86,NW,306,9.0,10.0,87,0.00,,,0.11,35,Wunderground v.1.15,2013-04-10 14:32:00,
2013-04-10 09:33:00,41.7,38.1,29.86,WNW,295,9.0,10.0,87,0.00,,,0.11,30,Wunderground v.1.15,2013-04-10 14:33:00,
2013-04-10 09:37:00,41.6,38.0,29.86,NW,323,10.0,11.0,87,0.00,,,0.12,42,Wunderground v.1.15,2013-04-10 14:37:00,
2013-04-10 09:38:00,41.6,38.0,29.86,NNW,339,10.0,18.0,87,0.00,,,0.12,40,Wunderground v.1.15,2013-04-10 14:38:00,
2013-04-10 09:39:00,41.6,38.0,29.86,North,5,10.0,18.0,87,0.00,,,0.12,33,Wunderground v.1.15,2013-04-10 14:39:00,
2013-04-10 09:43:00,41.6,38.0,29.86,NNW,340,10.0,10.0,87,0.00,,,0.12,39,Wunderground v.1.15,2013-04-10 14:43:00,
2013-04-10 09:44:00,41.6,38.0,29.86,North,360,10.0,11.0,87,0.00,,,0.12,39,Wunderground v.1.15,2013-04-10 14:44:00,
2013-04-10 09:45:00,41.5,37.9,29.85,NNE,19,10.0,11.0,87,0.00,,,0.12,39,Wunderground v.1.15,2013-04-10 14:45:00,
2013-04-10 09:48:00,41.4,37.8,29.86,North,355,10.0,15.0,87,0.00,,,0.12,37,Wunderground v.1.15,2013-04-10 14:48:00,
2013-04-10 09:49:00,41.3,37.7,29.86,WNW,293,10.0,15.0,87,0.00,,,0.12,37,Wunderground v.1.15,2013-04-10 14:49:00,
2013-04-10 09:52:00,41.3,37.7,29.86,NW,316,10.0,15.0,87,0.00,,,0.12,40,Wunderground v.1.15,2013-04-10 14:52:00,
2013-04-10 09:57:00,41.1,37.2,29.86,WNW,292,11.0,16.0,86,0.00,,,0.12,58,Wunderground v.1.15,2013-04-10 14:57:00,
2013-04-10 09:58:00,41.1,37.2,29.86,NW,325,11.0,16.0,86,0.00,,,0.12,39,Wunderground v.1.15,2013-04-10 14:58:00,
2013-04-10 10:02:00,41.1,37.2,29.86,NW,309,11.0,12.0,86,0.00,,,0.12,35,Wunderground v.1.15,2013-04-10 15:02:00,
2013-04-10 10:03:00,41.1,37.2,29.86,NNW,328,11.0,12.0,86,0.00,,,0.12,44,Wunderground v.1.15,2013-04-10 15:03:00,
2013-04-10 10:04:00,41.1,37.2,29.87,NNW,331,10.0,12.0,86,0.00,,,0.12,49,Wunderground v.1.15,2013-04-10 15:04:00,
2013-04-10 10:08:00,41.1,37.2,29.87,NW,318,10.0,12.0,86,0.00,,,0.12,51,Wunderground v.1.15,2013-04-10 15:08:00,
2013-04-10 10:09:00,41.1,37.2,29.87,NW,305,9.0,12.0,86,0.00,,,0.12,53,Wunderground v.1.15,2013-04-10 15:09:00,
2013-04-10 10:12:00,41.1,37.5,29.87,WNW,298,10.0,14.0,87,0.00,,,0.13,51,Wunderground v.1.15,2013-04-10 15:12:00,
2013-04-10 10:13:00,41.1,37.5,29.87,NW,323,9.0,14.0,87,0.00,,,0.13,51,Wunderground v.1.15,2013-04-10 15:13:00,
2013-04-10 10:15:00,41.0,37.4,29.87,West,275,10.0,15.0,87,0.00,,,0.13,49,Wunderground v.1.15,2013-04-10 15:15:00,
2013-04-10 10:17:00,41.0,37.4,29.87,WNW,287,11.0,15.0,87,0.00,,,0.13,49,Wunderground v.1.15,2013-04-10 15:17:00,
2013-04-10 10:19:00,41.0,37.4,29.88,NW,317,11.0,15.0,87,0.00,,,0.13,37,Wunderground v.1.15,2013-04-10 15:19:00,
2013-04-10 10:20:00,41.0,37.4,29.88,WNW,299,12.0,16.0,87,0.00,,,0.13,33,Wunderground v.1.15,2013-04-10 15:20:00,
2013-04-10 10:25:00,41.1,37.8,29.88,NW,309,10.0,12.0,88,0.00,,,0.13,39,Wunderground v.1.15,2013-04-10 15:25:00,
2013-04-10 10:30:00,41.3,38.0,29.88,NW,308,8.0,14.0,88,0.04,,,0.14,33,Wunderground v.1.15,2013-04-10 15:30:00,
2013-04-10 10:32:00,41.4,38.1,29.88,NW,305,7.0,7.0,88,0.04,,,0.14,30,Wunderground v.1.15,2013-04-10 15:32:00,
2013-04-10 10:35:00,41.4,38.1,29.90,NW,316,8.0,10.0,88,0.04,,,0.14,16,Wunderground v.1.15,2013-04-10 15:35:00,
2013-04-10 10:37:00,41.4,38.4,29.90,WNW,299,8.0,10.0,89,0.04,,,0.14,18,Wunderground v.1.15,2013-04-10 15:37:00,
2013-04-10 10:39:00,41.5,38.5,29.90,NW,305,7.0,10.0,89,0.04,,,0.14,19,Wunderground v.1.15,2013-04-10 15:39:00,
2013-04-10 10:43:00,41.3,38.3,29.91,NW,309,8.0,10.0,89,0.04,,,0.15,23,Wunderground v.1.15,2013-04-10 15:43:00,
2013-04-10 10:44:00,41.1,38.1,29.91,WNW,286,8.0,10.0,89,0.04,,,0.15,16,Wunderground v.1.15,2013-04-10 15:44:00,
2013-04-10 10:45:00,41.1,38.1,29.92,West,280,8.0,10.0,89,0.04,,,0.15,14,Wunderground v.1.15,2013-04-10 15:45:00,
2013-04-10 10:47:00,41.0,38.0,29.93,WNW,289,8.0,14.0,89,0.04,,,0.15,14,Wunderground v.1.15,2013-04-10 15:47:00,
2013-04-10 10:48:00,41.0,38.0,29.93,NW,306,9.0,14.0,89,0.04,,,0.15,16,Wunderground v.1.15,2013-04-10 15:48:00,
2013-04-10 10:50:00,41.0,38.0,29.92,NW,324,9.0,14.0,89,0.04,,,0.15,25,Wunderground v.1.15,2013-04-10 15:50:00,
2013-04-10 10:55:00,40.6,37.6,29.91,NW,312,10.0,14.0,89,0.04,,,0.15,28,Wunderground v.1.15,2013-04-10 15:55:00,
2013-04-10 10:56:00,40.6,37.6,29.91,NW,317,10.0,14.0,89,0.04,,,0.15,26,Wunderground v.1.15,2013-04-10 15:56:00,
2013-04-10 10:59:00,40.3,37.3,29.91,WNW,286,9.0,14.0,89,0.00,,,0.16,33,Wunderground v.1.15,2013-04-10 15:59:00,
2013-04-10 11:02:00,40.1,37.1,29.91,WNW,302,9.0,16.0,89,0.00,,,0.16,42,Wunderground v.1.15,2013-04-10 16:02:00,
2013-04-10 11:03:00,40.0,37.0,29.91,NW,316,9.0,16.0,89,0.00,,,0.16,35,Wunderground v.1.15,2013-04-10 16:03:00,
2013-04-10 11:04:00,40.0,37.0,29.91,NW,323,9.0,16.0,89,0.00,,,0.16,30,Wunderground v.1.15,2013-04-10 16:04:00,
2013-04-10 11:07:00,39.8,36.8,29.92,WNW,300,10.0,16.0,89,0.00,,,0.16,23,Wunderground v.1.15,2013-04-10 16:07:00,
2013-04-10 11:08:00,39.8,36.8,29.92,West,265,11.0,16.0,89,0.00,,,0.16,23,Wunderground v.1.15,2013-04-10 16:08:00,
2013-04-10 11:09:00,39.8,36.8,29.92,NW,319,11.0,16.0,89,0.00,,,0.16,21,Wunderground v.1.15,2013-04-10 16:09:00,
2013-04-10 11:12:00,39.8,36.8,29.92,WNW,287,11.0,11.0,89,0.00,,,0.16,18,Wunderground v.1.15,2013-04-10 16:12:00,
2013-04-10 11:15:00,39.9,37.2,29.92,WNW,288,10.0,11.0,90,0.00,,,0.16,16,Wunderground v.1.15,2013-04-10 16:15:00,
2013-04-10 11:17:00,39.9,36.9,29.93,WNW,290,10.0,16.0,89,0.00,,,0.16,14,Wunderground v.1.15,2013-04-10 16:17:00,
2013-04-10 11:19:00,39.8,36.8,29.93,NNW,327,10.0,16.0,89,0.00,,,0.16,18,Wunderground v.1.15,2013-04-10 16:19:00,
2013-04-10 11:20:00,39.7,36.7,29.92,WNW,291,11.0,16.0,89,0.00,,,0.16,19,Wunderground v.1.15,2013-04-10 16:20:00,
2013-04-10 11:23:00,39.7,36.7,29.92,WNW,301,11.0,11.0,89,0.00,,,0.17,25,Wunderground v.1.15,2013-04-10 16:23:00,
2013-04-10 11:24:00,39.7,36.7,29.92,NNW,336,12.0,12.0,89,0.00,,,0.17,26,Wunderground v.1.15,2013-04-10 16:24:00,
2013-04-10 11:26:00,39.8,36.8,29.93,NW,319,12.0,14.0,89,0.00,,,0.17,26,Wunderground v.1.15,2013-04-10 16:26:00,
2013-04-10 11:27:00,39.8,36.8,29.93,NW,317,11.0,14.0,89,0.00,,,0.17,21,Wunderground v.1.15,2013-04-10 16:27:00,
2013-04-10 11:30:00,39.9,36.9,29.94,NNW,335,10.0,17.0,89,0.00,,,0.17,19,Wunderground v.1.15,2013-04-10 16:30:00,
2013-04-10 11:31:00,39.9,36.9,29.93,NW,315,10.0,10.0,89,0.00,,,0.17,21,Wunderground v.1.15,2013-04-10 16:31:00,
2013-04-10 11:32:00,40.0,37.0,29.93,NW,309,9.0,10.0,89,0.00,,,0.17,23,Wunderground v.1.15,2013-04-10 16:32:00,
2013-04-10 11:37:00,39.9,36.9,29.91,WNW,288,10.0,17.0,89,0.04,,,0.18,28,Wunderground v.1.15,2013-04-10 16:37:00,
2013-04-10 11:38:00,39.9,36.9,29.91,NW,322,10.0,17.0,89,0.04,,,0.18,30,Wunderground v.1.15,2013-04-10 16:38:00,
2013-04-10 11:39:00,39.9,36.9,29.90,NW,318,9.0,17.0,89,0.04,,,0.18,35,Wunderground v.1.15,2013-04-10 16:39:00,
2013-04-10 11:44:00,40.0,37.0,29.91,NW,323,11.0,18.0,89,0.04,,,0.18,21,Wunderground v.1.15,2013-04-10 16:44:00,
2013-04-10 11:47:00,40.0,37.0,29.89,North,355,10.0,18.0,89,0.05,,,0.19,19,Wunderground v.1.15,2013-04-10 16:47:00,
2013-04-10 11:48:00,40.1,37.1,29.90,NW,308,11.0,18.0,89,0.05,,,0.19,11,Wunderground v.1.15,2013-04-10 16:48:00,
2013-04-10 11:52:00,40.1,37.1,29.92,West,274,10.0,21.0,89,0.13,,,0.20,14,Wunderground v.1.15,2013-04-10 16:52:00,
2013-04-10 11:53:00,40.1,37.1,29.92,NW,323,11.0,21.0,89,0.13,,,0.20,16,Wunderground v.1.15,2013-04-10 16:53:00,
2013-04-10 11:54:00,40.1,37.1,29.92,NW,310,11.0,21.0,89,0.13,,,0.20,19,Wunderground v.1.15,2013-04-10 16:54:00,
2013-04-10 11:56:00,40.2,36.9,29.91,WNW,294,11.0,21.0,88,0.18,,,0.21,30,Wunderground v.1.15,2013-04-10 16:56:00,
2013-04-10 12:00:00,40.2,36.9,29.90,NNW,332,12.0,12.0,88,0.19,,,0.23,25,Wunderground v.1.15,2013-04-10 17:00:00,
2013-04-10 12:03:00,40.2,37.2,29.89,NW,320,11.0,13.0,89,0.31,,,0.24,25,Wunderground v.1.15,2013-04-10 17:03:00,
2013-04-10 12:05:00,40.1,37.1,29.89,NW,315,11.0,13.0,89,0.55,,,0.26,23,Wunderground v.1.15,2013-04-10 17:05:00,
2013-04-10 12:07:00,40.0,37.0,29.90,WNW,300,11.0,13.0,89,0.72,,,0.28,19,Wunderground v.1.15,2013-04-10 17:07:00,
2013-04-10 12:08:00,40.1,37.1,29.90,NW,319,11.0,13.0,89,0.94,,,0.29,19,Wunderground v.1.15,2013-04-10 17:08:00,
2013-04-10 12:12:00,40.0,37.3,29.91,NNW,331,10.0,15.0,90,1.23,,,0.37,19,Wunderground v.1.15,2013-04-10 17:12:00,
2013-04-10 12:13:00,40.0,37.3,29.91,WNW,301,10.0,15.0,90,1.22,,,0.39,21,Wunderground v.1.15,2013-04-10 17:13:00,
2013-04-10 12:15:00,40.0,37.3,29.92,NNW,343,10.0,15.0,90,0.33,,,0.41,39,Wunderground v.1.15,2013-04-10 17:15:00,
2013-04-10 12:18:00,40.0,37.3,29.92,NW,307,8.0,15.0,90,0.21,,,0.41,62,Wunderground v.1.15,2013-04-10 17:18:00,
2013-04-10 12:20:00,40.1,37.4,29.92,NW,311,8.0,8.0,90,0.13,,,0.42,58,Wunderground v.1.15,2013-04-10 17:20:00,
2013-04-10 12:23:00,40.2,37.5,29.90,WNW,302,7.0,8.0,90,0.48,,,0.44,90,Wunderground v.1.15,2013-04-10 17:23:00,
2013-04-10 12:24:00,40.2,37.5,29.90,NW,321,7.0,13.0,90,0.36,,,0.44,107,Wunderground v.1.15,2013-04-10 17:24:00,
2013-04-10 12:25:00,40.3,37.6,29.90,WNW,302,7.0,17.0,90,0.19,,,0.44,98,Wunderground v.1.15,2013-04-10 17:25:00,
2013-04-10 12:29:00,40.2,37.5,29.93,WNW,300,8.0,17.0,90,0.09,,,0.44,104,Wunderground v.1.15,2013-04-10 17:29:00,
2013-04-10 12:32:00,40.1,37.4,29.95,West,260,8.0,8.0,90,0.06,,,0.44,56,Wunderground v.1.15,2013-04-10 17:32:00,
2013-04-10 12:34:00,40.1,37.4,29.96,NW,307,7.0,8.0,90,0.05,,,0.44,56,Wunderground v.1.15,2013-04-10 17:34:00,
2013-04-10 12:37:00,40.1,37.4,29.94,WNW,298,7.0,15.0,90,0.05,,,0.45,98,Wunderground v.1.15,2013-04-10 17:37:00,
2013-04-10 12:40:00,40.1,37.4,29.92,NW,324,8.0,16.0,90,0.05,,,0.45,299,Wunderground v.1.15,2013-04-10 17:40:00,
2013-04-10 12:42:00,40.1,37.1,29.92,NW,318,10.0,18.0,89,0.05,,,0.45,264,Wunderground v.1.15,2013-04-10 17:42:00,
2013-04-10 12:43:00,40.1,37.1,29.91,North,355,11.0,18.0,89,0.09,,,0.46,260,Wunderground v.1.15,2013-04-10 17:43:00,
2013-04-10 12:45:00,40.2,37.2,29.90,WNW,284,13.0,18.0,89,0.09,,,0.46,302,Wunderground v.1.15,2013-04-10 17:45:00,
2013-04-10 12:49:00,40.4,37.4,29.91,NW,312,13.0,18.0,89,0.09,,,0.46,193,Wunderground v.1.15,2013-04-10 17:49:00,
2013-04-10 12:50:00,40.5,37.5,29.91,WNW,302,13.0,17.0,89,0.07,,,0.46,167,Wunderground v.1.15,2013-04-10 17:50:00,
2013-04-10 12:54:00,40.4,37.1,29.91,NNW,331,12.0,21.0,88,0.05,,,0.46,190,Wunderground v.1.15,2013-04-10 17:54:00,
2013-04-10 12:55:00,40.5,37.5,29.91,WNW,299,12.0,21.0,89,0.04,,,0.46,248,Wunderground v.1.15,2013-04-10 17:55:00,
2013-04-10 12:57:00,40.5,37.5,29.91,NW,304,11.0,21.0,89,0.04,,,0.46,250,Wunderground v.1.15,2013-04-10 17:57:00,
2013-04-10 12:59:00,40.5,37.5,29.91,NNW,328,12.0,21.0,89,0.00,,,0.46,264,Wunderground v.1.15,2013-04-10 17:59:00,
2013-04-10 13:00:00,40.5,37.5,29.91,WNW,287,12.0,12.0,89,0.00,,,0.46,186,Wunderground v.1.15,2013-04-10 18:00:00,
2013-04-10 13:03:00,40.5,37.5,29.90,WNW,299,12.0,16.0,89,0.00,,,0.46,274,Wunderground v.1.15,2013-04-10 18:03:00,
2013-04-10 13:04:00,40.5,37.2,29.90,West,278,12.0,16.0,88,0.00,,,0.46,285,Wunderground v.1.15,2013-04-10 18:04:00,
2013-04-10 13:08:00,40.3,37.0,29.91,NNW,331,12.0,18.0,88,0.00,,,0.46,295,Wunderground v.1.15,2013-04-10 18:08:00,
2013-04-10 13:09:00,40.3,37.0,29.91,NNW,327,12.0,18.0,88,0.00,,,0.46,262,Wunderground v.1.15,2013-04-10 18:09:00,
2013-04-10 13:11:00,40.3,37.0,29.91,WNW,292,13.0,13.0,88,0.00,,,0.46,186,Wunderground v.1.15,2013-04-10 18:11:00,
2013-04-10 13:14:00,40.4,37.1,29.92,NW,326,12.0,13.0,88,0.00,,,0.46,125,Wunderground v.1.15,2013-04-10 18:14:00,
2013-04-10 13:15:00,40.4,36.8,29.92,West,277,12.0,13.0,87,0.00,,,0.46,91,Wunderground v.1.15,2013-04-10 18:15:00,
2013-04-10 13:17:00,40.5,37.2,29.93,West,275,11.0,13.0,88,0.00,,,0.46,83,Wunderground v.1.15,2013-04-10 18:17:00,
2013-04-10 13:21:00,40.6,37.0,29.91,WNW,300,10.0,13.0,87,0.00,,,0.46,95,Wunderground v.1.15,2013-04-10 18:21:00,
2013-04-10 13:23:00,40.5,36.9,29.90,NW,316,10.0,15.0,87,0.00,,,0.46,148,Wunderground v.1.15,2013-04-10 18:23:00,
2013-04-10 13:25:00,40.4,36.8,29.90,NW,321,11.0,15.0,87,0.00,,,0.46,227,Wunderground v.1.15,2013-04-10 18:25:00,
2013-04-10 13:29:00,40.4,36.8,29.90,NNW,341,12.0,18.0,87,0.00,,,0.46,162,Wunderground v.1.15,2013-04-10 18:29:00,
2013-04-10 13:30:00,40.5,36.9,29.90,NW,315,13.0,13.0,87,0.00,,,0.46,135,Wunderground v.1.15,2013-04-10 18:30:00,
2013-04-10 13:33:00,40.6,37.0,29.90,NW,323,12.0,13.0,87,0.00,,,0.46,72,Wunderground v.1.15,2013-04-10 18:33:00,
2013-04-10 13:35:00,40.5,36.9,29.91,NW,310,12.0,13.0,87,0.00,,,0.46,74,Wunderground v.1.15,2013-04-10 18:35:00,
2013-04-10 13:38:00,40.4,36.8,29.91,NW,304,10.0,13.0,87,0.00,,,0.46,102,Wunderground v.1.15,2013-04-10 18:38:00,
2013-04-10 13:39:00,40.4,36.8,29.91,NW,310,9.0,13.0,87,0.00,,,0.46,114,Wunderground v.1.15,2013-04-10 18:39:00,
2013-04-10 13:40:00,40.3,36.7,29.91,NW,318,8.0,8.0,87,0.00,,,0.46,118,Wunderground v.1.15,2013-04-10 18:40:00,
2013-04-10 13:41:00,40.3,36.7,29.91,NW,304,8.0,12.0,87,0.00,,,0.46,118,Wunderground v.1.15,2013-04-10 18:41:00,
2013-04-10 13:44:00,40.2,36.6,29.90,NNW,336,9.0,23.0,87,0.00,,,0.46,142,Wunderground v.1.15,2013-04-10 18:44:00,
2013-04-10 13:47:00,40.1,36.5,29.90,NNW,344,10.0,23.0,87,0.00,,,0.46,137,Wunderground v.1.15,2013-04-10 18:47:00,
2013-04-10 13:48:00,40.1,36.5,29.90,NW,315,10.0,23.0,87,0.00,,,0.46,142,Wunderground v.1.15,2013-04-10 18:48:00,
2013-04-10 13:49:00,40.1,36.5,29.90,WNW,298,10.0,23.0,87,0.00,,,0.47,149,Wunderground v.1.15,2013-04-10 18:49:00,
2013-04-10 13:52:00,40.0,36.4,29.89,NW,319,12.0,15.0,87,0.00,,,0.47,167,Wunderground v.1.15,2013-04-10 18:52:00,
2013-04-10 13:55:00,40.0,36.4,29.89,WNW,301,12.0,15.0,87,0.00,,,0.47,267,Wunderground v.1.15,2013-04-10 18:55:00,
2013-04-10 13:56:00,40.1,36.5,29.89,NW,306,12.0,15.0,87,0.00,,,0.47,267,Wunderground v.1.15,2013-04-10 18:56:00,
2013-04-10 14:01:00,40.1,36.5,29.90,NW,317,12.0,13.0,87,0.00,,,0.47,243,Wunderground v.1.15,2013-04-10 19:01:00,
2013-04-10 14:02:00,40.1,36.5,29.90,NW,307,12.0,13.0,87,0.05,,,0.48,239,Wunderground v.1.15,2013-04-10 19:02:00,
2013-04-10 14:04:00,40.2,36.9,29.90,NW,316,12.0,13.0,88,0.05,,,0.48,288,Wunderground v.1.15,2013-04-10 19:04:00,
2013-04-10 14:05:00,40.2,36.9,29.90,NW,313,11.0,15.0,88,0.05,,,0.48,260,Wunderground v.1.15,2013-04-10 19:05:00,
2013-04-10 14:09:00,40.0,36.4,29.90,WNW,298,12.0,20.0,87,0.05,,,0.48,123,Wunderground v.1.15,2013-04-10 19:09:00,
2013-04-10 14:10:00,40.0,36.4,29.90,NW,307,12.0,20.0,87,0.05,,,0.48,121,Wunderground v.1.15,2013-04-10 19:10:00,
2013-04-10 14:12:00,40.1,36.8,29.91,NW,319,11.0,11.0,88,0.05,,,0.48,155,Wunderground v.1.15,2013-04-10 19:12:00,
2013-04-10 14:15:00,40.2,36.9,29.90,WNW,295,10.0,11.0,88,0.04,,,0.48,176,Wunderground v.1.15,2013-04-10 19:15:00,
2013-04-10 14:17:00,40.2,36.9,29.90,NW,311,9.0,13.0,88,0.04,,,0.48,218,Wunderground v.1.15,2013-04-10 19:17:00,
2013-04-10 14:20:00,40.2,36.9,29.91,WNW,302,8.0,13.0,88,0.00,,,0.48,111,Wunderground v.1.15,2013-04-10 19:20:00,
2013-04-10 14:23:00,40.2,36.9,29.90,NW,320,8.0,8.0,88,0.00,,,0.48,102,Wunderground v.1.15,2013-04-10 19:23:00,
2013-04-10 14:28:00,40.0,36.7,29.89,NW,319,9.0,15.0,88,0.00,,,0.48,121,Wunderground v.1.15,2013-04-10 19:28:00,
2013-04-10 14:29:00,39.9,36.6,29.90,NW,308,9.0,15.0,88,0.00,,,0.49,111,Wunderground v.1.15,2013-04-10 19:29:00,
2013-04-10 14:31:00,39.8,36.5,29.90,NNW,338,9.0,10.0,88,0.00,,,0.49,109,Wunderground v.1.15,2013-04-10 19:31:00,
2013-04-10 14:34:00,39.7,36.4,29.90,WNW,294,10.0,10.0,88,0.00,,,0.49,102,Wunderground v.1.15,2013-04-10 19:34:00,
2013-04-10 14:37:00,39.7,36.4,29.90,NNW,329,9.0,13.0,88,0.00,,,0.49,111,Wunderground v.1.15,2013-04-10 19:37:00,
2013-04-10 14:38:00,39.7,36.4,29.91,WNW,288,9.0,13.0,88,0.00,,,0.49,127,Wunderground v.1.15,2013-04-10 19:38:00,
2013-04-10 14:40:00,39.7,36.4,29.91,NW,312,9.0,14.0,88,0.00,,,0.49,146,Wunderground v.1.15,2013-04-10 19:40:00,
2013-04-10 14:42:00,39.8,36.5,29.90,WNW,294,9.0,16.0,88,0.00,,,0.49,156,Wunderground v.1.15,2013-04-10 19:42:00,
2013-04-10 14:43:00,39.8,36.5,29.89,NW,325,10.0,16.0,88,0.00,,,0.49,153,Wunderground v.1.15,2013-04-10 19:43:00,
2013-04-10 14:45:00,39.9,36.6,29.89,NNW,344,9.0,16.0,88,0.00,,,0.49,186,Wunderground v.1.15,2013-04-10 19:45:00,
2013-04-10 14:48:00,39.9,36.3,29.89,NW,309,10.0,19.0,87,0.00,,,0.49,197,Wunderground v.1.15,2013-04-10 19:48:00,
2013-04-10 14:50:00,40.0,36.4,29.89,WNW,294,11.0,19.0,87,0.00,,,0.49,183,Wunderground v.1.15,2013-04-10 19:50:00,
2013-04-10 14:51:00,40.0,36.4,29.89,NW,308,11.0,15.0,87,0.00,,,0.49,188,Wunderground v.1.15,2013-04-10 19:51:00,
2013-04-10 14:53:00,40.0,36.4,29.88,NW,314,11.0,16.0,87,0.00,,,0.49,172,Wunderground v.1.15,2013-04-10 19:53:00,
2013-04-10 14:55:00,40.1,36.5,29.89,WNW,292,12.0,16.0,87,0.00,,,0.49,172,Wunderground v.1.15,2013-04-10 19:55:00,
2013-04-10 14:56:00,40.2,36.6,29.89,NW,320,12.0,16.0,87,0.00,,,0.49,174,Wunderground v.1.15,2013-04-10 19:56:00,
2013-04-10 14:57:00,40.2,36.6,29.89,NW,319,12.0,19.0,87,0.00,,,0.49,167,Wunderground v.1.15,2013-04-10 19:57:00,
2013-04-10 15:03:00,40.0,36.7,29.89,West,281,10.0,15.0,88,0.00,,,0.49,156,Wunderground v.1.15,2013-04-10 20:03:00,
2013-04-10 15:05:00,40.1,36.8,29.89,WNW,302,10.0,15.0,88,0.00,,,0.49,171,Wunderground v.1.15,2013-04-10 20:05:00,
2013-04-10 15:07:00,40.0,36.4,29.89,WNW,283,10.0,15.0,87,0.00,,,0.49,160,Wunderground v.1.15,2013-04-10 20:07:00,
2013-04-10 15:09:00,40.0,36.4,29.89,NW,312,9.0,15.0,87,0.00,,,0.49,206,Wunderground v.1.15,2013-04-10 20:09:00,
2013-04-10 15:14:00,40.1,36.5,29.89,NW,313,11.0,15.0,87,0.00,,,0.49,137,Wunderground v.1.15,2013-04-10 20:14:00,
2013-04-10 15:15:00,40.2,36.6,29.89,WNW,303,11.0,15.0,87,0.00,,,0.49,139,Wunderground v.1.15,2013-04-10 20:15:00,
2013-04-10 15:18:00,40.4,36.8,29.88,NW,306,11.0,16.0,87,0.00,,,0.49,156,Wunderground v.1.15,2013-04-10 20:18:00,
2013-04-10 15:21:00,40.3,36.7,29.88,NW,306,11.0,11.0,87,0.00,,,0.49,232,Wunderground v.1.15,2013-04-10 20:21:00,
2013-04-10 15:22:00,40.3,36.4,29.89,WNW,296,11.0,13.0,86,0.00,,,0.49,257,Wunderground v.1.15,2013-04-10 20:22:00,
2013-04-10 15:23:00,40.3,36.4,29.88,NW,324,10.0,13.0,86,0.00,,,0.49,236,Wunderground v.1.15,2013-04-10 20:23:00,
2013-04-10 15:24:00,40.4,36.8,29.88,NW,308,10.0,19.0,87,0.00,,,0.49,221,Wunderground v.1.15,2013-04-10 20:24:00,
2013-04-10 15:30:00,40.7,37.1,29.89,NW,309,10.0,19.0,87,0.00,,,0.49,156,Wunderground v.1.15,2013-04-10 20:30:00,
2013-04-10 15:31:00,40.7,37.1,29.89,NW,304,10.0,13.0,87,0.00,,,0.49,149,Wunderground v.1.15,2013-04-10 20:31:00,
2013-04-10 15:32:00,40.7,36.8,29.89,WNW,302,10.0,13.0,86,0.00,,,0.49,149,Wunderground v.1.15,2013-04-10 20:32:00,
2013-04-10 15:34:00,40.7,36.8,29.89,NW,313,10.0,13.0,86,0.00,,,0.49,158,Wunderground v.1.15,2013-04-10 20:34:00,
2013-04-10 15:35:00,40.7,36.8,29.89,WNW,285,10.0,13.0,86,0.00,,,0.49,188,Wunderground v.1.15,2013-04-10 20:35:00,
2013-04-10 15:37:00,40.8,36.9,29.89,WNW,290,10.0,15.0,86,0.00,,,0.49,178,Wunderground v.1.15,2013-04-10 20:37:00,
2013-04-10 15:40:00,40.6,36.7,29.89,WNW,302,11.0,19.0,86,0.00,,,0.49,144,Wunderground v.1.15,2013-04-10 20:40:00,
2013-04-10 15:42:00,40.6,36.7,29.89,WNW,299,11.0,11.0,86,0.00,,,0.49,141,Wunderground v.1.15,2013-04-10 20:42:00,
2013-04-10 15:44:00,40.7,36.8,29.90,NW,311,10.0,16.0,86,0.00,,,0.49,142,Wunderground v.1.15,2013-04-10 20:44:00,
2013-04-10 15:48:00,40.4,36.2,29.89,NW,305,11.0,18.0,85,0.00,,,0.49,279,Wunderground v.1.15,2013-04-10 20:48:00,
2013-04-10 15:50:00,40.4,36.5,29.89,West,281,10.0,18.0,86,0.00,,,0.49,272,Wunderground v.1.15,2013-04-10 20:50:00,
2013-04-10 15:51:00,40.5,36.6,29.89,NNW,329,11.0,11.0,86,0.00,,,0.49,276,Wunderground v.1.15,2013-04-10 20:51:00,
2013-04-10 15:52:00,40.5,36.3,29.89,NW,306,11.0,19.0,85,0.00,,,0.49,267,Wunderground v.1.15,2013-04-10 20:52:00,
2013-04-10 15:53:00,40.5,36.3,29.89,WNW,289,12.0,19.0,85,0.00,,,0.49,264,Wunderground v.1.15,2013-04-10 20:53:00,
2013-04-10 15:55:00,40.6,36.4,29.90,NW,315,12.0,19.0,85,0.00,,,0.49,243,Wunderground v.1.15,2013-04-10 20:55:00,
2013-04-10 15:59:00,40.7,36.2,29.89,NW,304,12.0,19.0,84,0.00,,,0.49,272,Wunderground v.1.15,2013-04-10 20:59:00,
2013-04-10 16:01:00,40.7,36.2,29.89,WNW,298,12.0,17.0,84,0.00,,,0.49,179,Wunderground v.1.15,2013-04-10 21:01:00,
2013-04-10 16:02:00,40.8,36.3,29.89,NW,309,12.0,17.0,84,0.00,,,0.49,188,Wunderground v.1.15,2013-04-10 21:02:00,
2013-04-10 16:07:00,40.9,36.1,29.89,WNW,296,11.0,17.0,83,0.00,,,0.49,121,Wunderground v.1.15,2013-04-10 21:07:00,
2013-04-10 16:10:00,40.8,36.0,29.90,NW,313,10.0,10.0,83,0.00,,,0.49,127,Wunderground v.1.15,2013-04-10 21:10:00,
2013-04-10 16:11:00,40.8,36.0,29.90,WNW,302,10.0,10.0,83,0.00,,,0.49,123,Wunderground v.1.15,2013-04-10 21:11:00,
2013-04-10 16:15:00,40.7,35.9,29.90,NNW,327,10.0,20.0,83,0.00,,,0.49,125,Wunderground v.1.15,2013-04-10 21:15:00,
2013-04-10 16:17:00,40.7,35.9,29.90,NW,310,10.0,20.0,83,0.00,,,0.49,130,Wunderground v.1.15,2013-04-10 21:17:00,
2013-04-10 16:18:00,40.7,35.9,29.90,NW,323,10.0,20.0,83,0.00,,,0.49,153,Wunderground v.1.15,2013-04-10 21:18:00,
2013-04-10 16:22:00,40.8,35.7,29.89,WNW,288,11.0,12.0,82,0.00,,,0.49,243,Wunderground v.1.15,2013-04-10 21:22:00,
2013-04-10 16:24:00,40.9,36.1,29.90,NW,317,11.0,12.0,83,0.00,,,0.49,234,Wunderground v.1.15,2013-04-10 21:24:00,
2013-04-10 16:25:00,40.9,36.1,29.90,NW,315,11.0,17.0,83,0.00,,,0.49,188,Wunderground v.1.15,2013-04-10 21:25:00,
2013-04-10 16:28:00,41.0,36.2,29.90,NW,319,12.0,17.0,83,0.00,,,0.49,155,Wunderground v.1.15,2013-04-10 21:28:00,
2013-04-10 16:32:00,41.2,36.1,29.90,WSW,255,10.0,12.0,82,0.00,,,0.49,174,Wunderground v.1.15,2013-04-10 21:32:00,
2013-04-10 16:33:00,41.2,36.1,29.89,NW,309,11.0,18.0,82,0.00,,,0.49,130,Wunderground v.1.15,2013-04-10 21:33:00,
2013-04-10 16:34:00,41.2,36.1,29.89,NNW,331,10.0,18.0,82,0.00,,,0.49,111,Wunderground v.1.15,2013-04-10 21:34:00,
2013-04-10 16:38:00,41.3,36.2,29.89,NW,324,11.0,18.0,82,0.00,,,0.49,225,Wunderground v.1.15,2013-04-10 21:38:00,
2013-04-10 16:39:00,41.4,36.3,29.89,NNW,331,10.0,18.0,82,0.00,,,0.49,199,Wunderground v.1.15,2013-04-10 21:39:00,
2013-04-10 16:40:00,41.5,36.4,29.89,WNW,295,10.0,13.0,82,0.00,,,0.49,160,Wunderground v.1.15,2013-04-10 21:40:00,
2013-04-10 16:41:00,41.5,36.1,29.89,NW,322,11.0,13.0,81,0.00,,,0.49,160,Wunderground v.1.15,2013-04-10 21:41:00,
2013-04-10 16:45:00,41.6,36.2,29.89,NNW,334,11.0,15.0,81,0.00,,,0.49,244,Wunderground v.1.15,2013-04-10 21:45:00,
2013-04-10 16:46:00,41.6,36.2,29.89,NW,324,11.0,15.0,81,0.00,,,0.49,246,Wunderground v.1.15,2013-04-10 21:46:00,
2013-04-10 16:47:00,41.6,36.2,29.89,NW,323,10.0,15.0,81,0.00,,,0.49,246,Wunderground v.1.15,2013-04-10 21:47:00,
2013-04-10 16:49:00,41.7,36.3,29.88,WNW,290,11.0,15.0,81,0.00,,,0.49,195,Wunderground v.1.15,2013-04-10 21:49:00,
2013-04-10 16:54:00,41.9,36.5,29.89,WNW,302,10.0,14.0,81,0.00,,,0.49,172,Wunderground v.1.15,2013-04-10 21:54:00,
2013-04-10 16:55:00,41.9,36.2,29.89,WNW,290,10.0,14.0,80,0.00,,,0.49,169,Wunderground v.1.15,2013-04-10 21:55:00,
2013-04-10 17:00:00,41.9,36.2,29.89,NW,324,11.0,11.0,80,0.00,,,0.49,160,Wunderground v.1.15,2013-04-10 22:00:00,
2013-04-10 17:05:00,42.1,36.4,29.89,WNW,298,10.0,17.0,80,0.00,,,0.49,144,Wunderground v.1.15,2013-04-10 22:05:00,
2013-04-10 17:06:00,42.1,36.4,29.89,WNW,302,10.0,17.0,80,0.00,,,0.49,144,Wunderground v.1.15,2013-04-10 22:06:00,
2013-04-10 17:08:00,42.0,36.3,29.89,NW,319,10.0,17.0,80,0.00,,,0.49,144,Wunderground v.1.15,2013-04-10 22:08:00,
2013-04-10 17:10:00,42.1,36.4,29.89,NW,320,10.0,10.0,80,0.00,,,0.49,148,Wunderground v.1.15,2013-04-10 22:10:00,
2013-04-10 17:12:00,42.2,36.5,29.89,NW,319,10.0,15.0,80,0.00,,,0.49,146,Wunderground v.1.15,2013-04-10 22:12:00,
2013-04-10 17:13:00,42.2,36.5,29.89,NNW,327,10.0,15.0,80,0.00,,,0.49,148,Wunderground v.1.15,2013-04-10 22:13:00,
2013-04-10 17:17:00,42.5,37.1,29.89,NW,325,9.0,15.0,81,0.00,,,0.49,156,Wunderground v.1.15,2013-04-10 22:17:00,
2013-04-10 17:18:00,42.5,36.8,29.89,WNW,300,9.0,15.0,80,0.00,,,0.49,151,Wunderground v.1.15,2013-04-10 22:18:00,
2013-04-10 17:24:00,42.8,37.1,29.89,WNW,293,8.0,12.0,80,0.00,,,0.49,142,Wunderground v.1.15,2013-04-10 22:24:00,
2013-04-10 17:25:00,42.8,36.7,29.89,WNW,302,9.0,12.0,79,0.00,,,0.49,146,Wunderground v.1.15,2013-04-10 22:25:00,
2013-04-10 17:27:00,42.9,36.8,29.89,NNW,336,10.0,12.0,79,0.00,,,0.49,142,Wunderground v.1.15,2013-04-10 22:27:00,
2013-04-10 17:29:00,43.0,37.3,29.89,NW,311,9.0,12.0,80,0.00,,,0.49,135,Wunderground v.1.15,2013-04-10 22:29:00,
2013-04-10 17:30:00,43.1,37.3,29.89,NNW,336,9.0,9.0,80,0.00,,,0.49,130,Wunderground v.1.15,2013-04-10 22:30:00,
2013-04-10 17:32:00,43.1,37.0,29.89,WNW,296,10.0,10.0,79,0.00,,,0.49,130,Wunderground v.1.15,2013-04-10 22:32:00,
2013-04-10 17:35:00,43.1,37.0,29.89,WNW,301,9.0,11.0,79,0.00,,,0.49,125,Wunderground v.1.15,2013-04-10 22:35:00,
2013-04-10 17:38:00,43.2,37.1,29.89,NW,325,9.0,11.0,79,0.00,,,0.49,127,Wunderground v.1.15,2013-04-10 22:38:00,
2013-04-10 17:39:00,43.2,37.1,29.89,NW,315,8.0,12.0,79,0.00,,,0.49,123,Wunderground v.1.15,2013-04-10 22:39:00,
2013-04-10 17:42:00,43.3,37.2,29.89,NW,317,9.0,13.0,79,0.00,,,0.49,121,Wunderground v.1.15,2013-04-10 22:42:00,
2013-04-10 17:44:00,43.3,37.2,29.89,West,281,10.0,13.0,79,0.00,,,0.49,125,Wunderground v.1.15,2013-04-10 22:44:00,
2013-04-10 17:45:00,43.3,37.2,29.88,NW,321,10.0,13.0,79,0.00,,,0.49,127,Wunderground v.1.15,2013-04-10 22:45:00,
2013-04-10 17:48:00,43.4,37.3,29.88,WNW,302,9.0,13.0,79,0.00,,,0.49,132,Wunderground v.1.15,2013-04-10 22:48:00,
2013-04-10 17:49:00,43.4,37.3,29.89,NNW,329,10.0,13.0,79,0.00,,,0.49,128,Wunderground v.1.15,2013-04-10 22:49:00,
2013-04-10 17:50:00,43.5,37.4,29.89,NNW,336,10.0,12.0,79,0.00,,,0.49,123,Wunderground v.1.15,2013-04-10 22:50:00,
2013-04-10 17:53:00,43.6,37.5,29.89,NW,319,9.0,12.0,79,0.00,,,0.49,123,Wunderground v.1.15,2013-04-10 22:53:00,
2013-04-10 17:57:00,43.7,37.3,29.89,NW,306,9.0,12.0,78,0.00,,,0.49,116,Wunderground v.1.15,2013-04-10 22:57:00,
2013-04-10 17:58:00,43.7,37.3,29.89,NW,306,10.0,12.0,78,0.00,,,0.49,118,Wunderground v.1.15,2013-04-10 22:58:00,
2013-04-10 18:03:00,43.9,37.5,29.89,NW,311,10.0,14.0,78,0.00,,,0.49,104,Wunderground v.1.15,2013-04-10 23:03:00,
2013-04-10 18:04:00,43.9,37.5,29.89,NNW,333,10.0,14.0,78,0.00,,,0.49,105,Wunderground v.1.15,2013-04-10 23:04:00,
2013-04-10 18:07:00,44.0,37.6,29.89,NW,325,9.0,14.0,78,0.00,,,0.49,114,Wunderground v.1.15,2013-04-10 23:07:00,
2013-04-10 18:08:00,44.0,37.6,29.89,NNW,339,9.0,14.0,78,0.00,,,0.49,114,Wunderground v.1.15,2013-04-10 23:08:00,
2013-04-10 18:09:00,44.0,37.6,29.89,NW,325,9.0,14.0,78,0.00,,,0.49,111,Wunderground v.1.15,2013-04-10 23:09:00,
2013-04-10 18:10:00,44.0,37.6,29.89,WNW,298,9.0,14.0,78,0.00,,,0.49,113,Wunderground v.1.15,2013-04-10 23:10:00,
2013-04-10 18:14:00,44.1,37.7,29.89,WNW,292,9.0,18.0,78,0.00,,,0.49,132,Wunderground v.1.15,2013-04-10 23:14:00,
2013-04-10 18:15:00,44.2,37.8,29.89,NW,321,9.0,18.0,78,0.00,,,0.49,162,Wunderground v.1.15,2013-04-10 23:15:00,
2013-04-10 18:17:00,44.2,37.8,29.89,West,278,9.0,18.0,78,0.00,,,0.49,188,Wunderground v.1.15,2013-04-10 23:17:00,
2013-04-10 18:18:00,44.3,37.9,29.89,NW,318,9.0,18.0,78,0.00,,,0.49,185,Wunderground v.1.15,2013-04-10 23:18:00,
2013-04-10 18:19:00,44.4,38.0,29.89,WNW,298,8.0,18.0,78,0.00,,,0.49,211,Wunderground v.1.15,2013-04-10 23:19:00,
2013-04-10 18:24:00,44.5,37.4,29.89,NNW,329,9.0,12.0,76,0.00,,,0.49,123,Wunderground v.1.15,2013-04-10 23:24:00,
2013-04-10 18:25:00,44.5,37.7,29.89,North,351,9.0,12.0,77,0.00,,,0.49,123,Wunderground v.1.15,2013-04-10 23:25:00,
2013-04-10 18:26:00,44.4,37.6,29.89,NW,321,9.0,12.0,77,0.00,,,0.49,123,Wunderground v.1.15,2013-04-10 23:26:00,
2013-04-10 18:27:00,44.5,37.7,29.89,NW,323,9.0,12.0,77,0.00,,,0.49,141,Wunderground v.1.15,2013-04-10 23:27:00,
2013-04-10 18:31:00,44.6,37.8,29.89,NW,325,9.0,9.0,77,0.00,,,0.49,120,Wunderground v.1.15,2013-04-10 23:31:00,
2013-04-10 18:33:00,44.7,37.6,29.89,NW,304,8.0,11.0,76,0.00,,,0.49,223,Wunderground v.1.15,2013-04-10 23:33:00,
2013-04-10 18:36:00,44.7,37.6,29.89,NW,319,9.0,13.0,76,0.00,,,0.49,174,Wunderground v.1.15,2013-04-10 23:36:00,
2013-04-10 18:42:00,45.1,38.0,29.89,NNW,331,9.0,14.0,76,0.00,,,0.49,209,Wunderground v.1.15,2013-04-10 23:42:00,
2013-04-10 18:43:00,45.1,38.0,29.89,NNW,336,9.0,14.0,76,0.00,,,0.49,206,Wunderground v.1.15,2013-04-10 23:43:00,
2013-04-10 18:47:00,45.4,37.9,29.89,NNW,337,8.0,14.0,75,0.00,,,0.49,188,Wunderground v.1.15,2013-04-10 23:47:00,
2013-04-10 18:48:00,45.4,37.9,29.89,NW,326,8.0,14.0,75,0.00,,,0.49,183,Wunderground v.1.15,2013-04-10 23:48:00,
2013-04-10 18:49:00,45.5,38.0,29.89,NNW,344,8.0,14.0,75,0.00,,,0.49,178,Wunderground v.1.15,2013-04-10 23:49:00,
2013-04-10 18:53:00,45.5,37.7,29.89,NW,313,8.0,11.0,74,0.00,,,0.49,162,Wunderground v.1.15,2013-04-10 23:53:00,
2013-04-10 18:55:00,45.6,37.8,29.89,NW,316,8.0,11.0,74,0.00,,,0.49,113,Wunderground v.1.15,2013-04-10 23:55:00,
2013-04-10 18:57:00,45.6,37.8,29.89,NW,318,8.0,11.0,74,0.00,,,0.49,86,Wunderground v.1.15,2013-04-10 23:57:00,
2013-04-10 18:59:00,45.6,38.1,29.90,NW,308,7.0,11.0,75,0.00,,,0.49,100,Wunderground v.1.15,2013-04-10 23:59:00,
2013-04-10 19:02:00,45.6,37.8,29.90,NW,312,7.0,9.0,74,0.00,,,0.49,83,Wunderground v.1.15,2013-04-11 00:02:00,
2013-04-10 19:03:00,45.6,37.8,29.90,NW,324,7.0,9.0,74,0.00,,,0.49,118,Wunderground v.1.15,2013-04-11 00:03:00,
2013-04-10 19:06:00,45.6,37.8,29.90,NW,305,7.0,12.0,74,0.00,,,0.49,116,Wunderground v.1.15,2013-04-11 00:06:00,
2013-04-10 19:10:00,45.7,37.9,29.90,NW,317,8.0,12.0,74,0.00,,,0.49,83,Wunderground v.1.15,2013-04-11 00:10:00,
2013-04-10 19:12:00,45.7,37.9,29.90,North,355,7.0,8.0,74,0.00,,,0.49,77,Wunderground v.1.15,2013-04-11 00:12:00,
2013-04-10 19:13:00,45.8,38.0,29.90,North,355,7.0,11.0,74,0.00,,,0.49,86,Wunderground v.1.15,2013-04-11 00:13:00,
2013-04-10 19:15:00,45.8,38.0,29.90,NW,304,7.0,11.0,74,0.00,,,0.49,77,Wunderground v.1.15,2013-04-11 00:15:00,
2013-04-10 19:20:00,45.8,38.3,29.91,North,355,5.0,11.0,75,0.00,,,0.49,74,Wunderground v.1.15,2013-04-11 00:20:00,
2013-04-10 19:21:00,45.8,38.3,29.91,NW,313,5.0,5.0,75,0.00,,,0.49,72,Wunderground v.1.15,2013-04-11 00:21:00,
2013-04-10 19:22:00,45.8,38.3,29.91,NW,309,5.0,5.0,75,0.00,,,0.49,67,Wunderground v.1.15,2013-04-11 00:22:00,
2013-04-10 19:24:00,45.9,38.1,29.91,NW,309,4.0,6.0,74,0.00,,,0.49,53,Wunderground v.1.15,2013-04-11 00:24:00,
2013-04-10 19:28:00,45.9,38.1,29.91,NW,323,5.0,8.0,74,0.00,,,0.49,40,Wunderground v.1.15,2013-04-11 00:28:00,
2013-04-10 19:29:00,45.9,38.1,29.91,NW,313,5.0,8.0,74,0.00,,,0.49,40,Wunderground v.1.15,2013-04-11 00:29:00,
2013-04-10 19:32:00,45.8,38.3,29.91,NNW,346,4.0,5.0,75,0.00,,,0.49,33,Wunderground v.1.15,2013-04-11 00:32:00,
2013-04-10 19:33:00,45.8,38.3,29.91,WNW,301,5.0,9.0,75,0.00,,,0.49,30,Wunderground v.1.15,2013-04-11 00:33:00,
2013-04-10 19:34:00,45.8,38.3,29.91,WNW,298,5.0,9.0,75,0.00,,,0.49,26,Wunderground v.1.15,2013-04-11 00:34:00,
2013-04-10 19:35:00,45.8,38.3,29.91,NNW,331,5.0,9.0,75,0.00,,,0.49,25,Wunderground v.1.15,2013-04-11 00:35:00,
2013-04-10 19:39:00,45.7,38.2,29.91,NW,321,5.0,9.0,75,0.00,,,0.49,23,Wunderground v.1.15,2013-04-11 00:39:00,
2013-04-10 19:41:00,45.7,38.2,29.91,NW,320,6.0,6.0,75,0.00,,,0.49,19,Wunderground v.1.15,2013-04-11 00:41:00,
2013-04-10 19:45:00,45.7,38.2,29.91,NNW,328,6.0,8.0,75,0.00,,,0.49,12,Wunderground v.1.15,2013-04-11 00:45:00,
2013-04-10 19:47:00,45.7,38.2,29.91,North,360,6.0,8.0,75,0.00,,,0.49,12,Wunderground v.1.15,2013-04-11 00:47:00,
2013-04-10 19:50:00,45.7,38.2,29.91,NW,305,5.0,8.0,75,0.00,,,0.49,7,Wunderground v.1.15,2013-04-11 00:50:00,
2013-04-10 19:51:00,45.7,38.2,29.91,NNW,342,5.0,7.0,75,0.00,,,0.49,7,Wunderground v.1.15,2013-04-11 00:51:00,
2013-04-10 19:55:00,45.6,38.1,29.92,North,355,5.0,7.0,75,0.00,,,0.49,5,Wunderground v.1.15,2013-04-11 00:55:00,
2013-04-10 19:56:00,45.6,38.1,29.92,NW,317,5.0,7.0,75,0.00,,,0.49,0,Wunderground v.1.15,2013-04-11 00:56:00,
2013-04-10 19:57:00,45.6,38.5,29.91,NW,321,5.0,7.0,76,0.00,,,0.49,0,Wunderground v.1.15,2013-04-11 00:57:00,
2013-04-10 20:00:00,45.6,38.5,29.91,North,355,5.0,6.0,76,0.00,,,0.49,0,Wunderground v.1.15,2013-04-11 01:00:00,
2013-04-10 20:02:00,45.7,38.6,29.91,WNW,302,5.0,7.0,76,0.00,,,0.49,0,Wunderground v.1.15,2013-04-11 01:02:00,
2013-04-10 20:03:00,45.6,38.5,29.91,NNW,335,5.0,7.0,76,0.00,,,0.49,0,Wunderground v.1.15,2013-04-11 01:03:00,
2013-04-10 20:04:00,45.6,38.1,29.91,NW,319,6.0,7.0,75,0.00,,,0.49,0,Wunderground v.1.15,2013-04-11 01:04:00,
2013-04-10 20:08:00,45.7,38.2,29.91,NW,319,6.0,10.0,75,0.00,,,0.49,0,Wunderground v.1.15,2013-04-11 01:08:00,
2013-04-10 20:10:00,45.7,37.9,29.91,NW,315,7.0,7.0,74,0.00,,,0.49,0,Wunderground v.1.15,2013-04-11 01:10:00,
2013-04-10 20:11:00,45.7,38.2,29.91,NW,315,7.0,7.0,75,0.00,,,0.49,0,Wunderground v.1.15,2013-04-11 01:11:00,
2013-04-10 20:12:00,45.7,37.9,29.91,WNW,284,7.0,7.0,74,0.00,,,0.49,0,Wunderground v.1.15,2013-04-11 01:12:00,
2013-04-10 20:14:00,45.7,37.9,29.91,NW,319,7.0,8.0,74,0.00,,,0.49,0,Wunderground v.1.15,2013-04-11 01:14:00,
2013-04-10 20:16:00,45.6,38.1,29.91,NW,321,6.0,8.0,75,0.00,,,0.49,0,Wunderground v.1.15,2013-04-11 01:16:00,
2013-04-10 20:18:00,45.6,38.1,29.91,NW,309,6.0,8.0,75,0.00,,,0.49,0,Wunderground v.1.15,2013-04-11 01:18:00,
2013-04-10 20:21:00,45.5,38.0,29.91,WNW,284,6.0,8.0,75,0.00,,,0.49,0,Wunderground v.1.15,2013-04-11 01:21:00,
2013-04-10 20:23:00,45.5,38.0,29.91,NW,311,6.0,8.0,75,0.00,,,0.49,0,Wunderground v.1.15,2013-04-11 01:23:00,
2013-04-10 20:24:00,45.5,38.0,29.91,NNW,340,6.0,8.0,75,0.00,,,0.49,0,Wunderground v.1.15,2013-04-11 01:24:00,
2013-04-10 20:25:00,45.5,38.0,29.91,NW,315,6.0,8.0,75,0.00,,,0.49,0,Wunderground v.1.15,2013-04-11 01:25:00,
2013-04-10 20:29:00,45.4,37.9,29.91,NW,321,5.0,8.0,75,0.00,,,0.49,0,Wunderground v.1.15,2013-04-11 01:29:00,
2013-04-10 20:34:00,45.5,38.0,29.92,NNW,333,5.0,10.0,75,0.00,,,0.49,0,Wunderground v.1.15,2013-04-11 01:34:00,
2013-04-10 20:35:00,45.4,37.9,29.92,NNW,338,5.0,10.0,75,0.00,,,0.49,0,Wunderground v.1.15,2013-04-11 01:35:00,
2013-04-10 20:37:00,45.4,37.9,29.92,NNW,331,6.0,11.0,75,0.00,,,0.49,0,Wunderground v.1.15,2013-04-11 01:37:00,
2013-04-10 20:38:00,45.4,37.9,29.92,WNW,303,7.0,11.0,75,0.00,,,0.49,0,Wunderground v.1.15,2013-04-11 01:38:00,
2013-04-10 20:39:00,45.4,37.6,29.92,WNW,300,7.0,11.0,74,0.00,,,0.49,0,Wunderground v.1.15,2013-04-11 01:39:00,
2013-04-10 20:40:00,45.5,37.7,29.92,NNW,340,7.0,14.0,74,0.00,,,0.49,0,Wunderground v.1.15,2013-04-11 01:40:00,
2013-04-10 20:43:00,45.5,37.7,29.92,NW,317,7.0,14.0,74,0.00,,,0.49,0,Wunderground v.1.15,2013-04-11 01:43:00,
2013-04-10 20:45:00,45.4,37.9,29.92,NW,325,7.0,14.0,75,0.00,,,0.49,0,Wunderground v.1.15,2013-04-11 01:45:00,
2013-04-10 20:48:00,45.4,37.9,29.92,NW,317,7.0,14.0,75,0.00,,,0.49,0,Wunderground v.1.15,2013-04-11 01:48:00,
2013-04-10 20:50:00,45.3,37.8,29.92,NW,311,6.0,6.0,75,0.00,,,0.49,0,Wunderground v.1.15,2013-04-11 01:50:00,
2013-04-10 20:52:00,45.3,37.8,29.92,NW,309,6.0,9.0,75,0.00,,,0.49,0,Wunderground v.1.15,2013-04-11 01:52:00,
2013-04-10 20:53:00,45.3,37.8,29.92,WNW,300,6.0,9.0,75,0.00,,,0.49,0,Wunderground v.1.15,2013-04-11 01:53:00,
2013-04-10 20:55:00,45.3,37.8,29.92,NW,319,7.0,9.0,75,0.00,,,0.49,0,Wunderground v.1.15,2013-04-11 01:55:00,
2013-04-10 20:57:00,45.3,37.8,29.92,NW,313,6.0,9.0,75,0.00,,,0.49,0,Wunderground v.1.15,2013-04-11 01:57:00,
2013-04-10 21:00:00,45.2,37.7,29.92,NW,314,7.0,10.0,75,0.00,,,0.49,0,Wunderground v.1.15,2013-04-11 02:00:00,
2013-04-10 21:02:00,45.3,37.8,29.92,NW,320,7.0,10.0,75,0.00,,,0.49,0,Wunderground v.1.15,2013-04-11 02:02:00,
2013-04-10 21:03:00,45.2,37.7,29.92,NW,310,7.0,10.0,75,0.00,,,0.49,0,Wunderground v.1.15,2013-04-11 02:03:00,
2013-04-10 21:08:00,45.2,37.7,29.93,WNW,300,7.0,10.0,75,0.00,,,0.49,0,Wunderground v.1.15,2013-04-11 02:08:00,
2013-04-10 21:10:00,45.2,37.7,29.93,NW,318,7.0,7.0,75,0.00,,,0.49,0,Wunderground v.1.15,2013-04-11 02:10:00,
2013-04-10 21:13:00,45.2,37.7,29.93,NW,307,6.0,9.0,75,0.00,,,0.49,0,Wunderground v.1.15,2013-04-11 02:13:00,
2013-04-10 21:15:00,45.3,37.8,29.93,NNW,341,7.0,9.0,75,0.00,,,0.49,0,Wunderground v.1.15,2013-04-11 02:15:00,
2013-04-10 21:17:00,45.2,37.7,29.93,NW,319,6.0,9.0,75,0.00,,,0.49,0,Wunderground v.1.15,2013-04-11 02:17:00,
2013-04-10 21:18:00,45.2,37.7,29.93,NW,315,6.0,9.0,75,0.00,,,0.49,0,Wunderground v.1.15,2013-04-11 02:18:00,
2013-04-10 21:22:00,45.2,37.7,29.94,NW,315,6.0,6.0,75,0.00,,,0.49,0,Wunderground v.1.15,2013-04-11 02:22:00,
2013-04-10 21:23:00,45.1,37.6,29.94,NW,311,6.0,6.0,75,0.00,,,0.49,0,Wunderground v.1.15,2013-04-11 02:23:00,
2013-04-10 21:24:00,45.2,37.7,29.94,NW,313,5.0,7.0,75,0.00,,,0.49,0,Wunderground v.1.15,2013-04-11 02:24:00,
2013-04-10 21:25:00,45.1,37.6,29.94,NNW,330,5.0,7.0,75,0.00,,,0.49,0,Wunderground v.1.15,2013-04-11 02:25:00,
2013-04-10 21:29:00,45.1,37.6,29.95,NW,323,5.0,7.0,75,0.00,,,0.49,0,Wunderground v.1.15,2013-04-11 02:29:00,
2013-04-10 21:31:00,45.1,37.6,29.95,NW,320,6.0,6.0,75,0.00,,,0.49,0,Wunderground v.1.15,2013-04-11 02:31:00,
2013-04-10 21:32:00,45.1,37.6,29.95,WNW,300,6.0,7.0,75,0.00,,,0.49,0,Wunderground v.1.15,2013-04-11 02:32:00,
2013-04-10 21:35:00,45.1,37.6,29.95,NW,317,6.0,7.0,75,0.00,,,0.49,0,Wunderground v.1.15,2013-04-11 02:35:00,
2013-04-10 21:38:00,45.1,37.6,29.95,NNW,344,6.0,7.0,75,0.00,,,0.49,0,Wunderground v.1.15,2013-04-11 02:38:00,
2013-04-10 21:39:00,45.1,37.6,29.95,NW,324,6.0,7.0,75,0.00,,,0.49,0,Wunderground v.1.15,2013-04-11 02:39:00,
2013-04-10 21:40:00,45.1,37.6,29.95,WNW,303,6.0,9.0,75,0.00,,,0.49,0,Wunderground v.1.15,2013-04-11 02:40:00,
2013-04-10 21:43:00,45.1,37.6,29.94,NW,315,6.0,9.0,75,0.00,,,0.49,0,Wunderground v.1.15,2013-04-11 02:43:00,
2013-04-10 21:44:00,45.1,37.6,29.94,NW,314,6.0,9.0,75,0.00,,,0.49,0,Wunderground v.1.15,2013-04-11 02:44:00,
2013-04-10 21:45:00,45.1,37.6,29.94,NW,310,6.0,9.0,75,0.00,,,0.49,0,Wunderground v.1.15,2013-04-11 02:45:00,
2013-04-10 21:48:00,45.1,37.6,29.94,NNW,329,5.0,9.0,75,0.00,,,0.49,0,Wunderground v.1.15,2013-04-11 02:48:00,
2013-04-10 21:49:00,45.1,37.6,29.95,WNW,302,5.0,9.0,75,0.00,,,0.49,0,Wunderground v.1.15,2013-04-11 02:49:00,
2013-04-10 21:50:00,45.1,37.6,29.95,WNW,292,5.0,7.0,75,0.00,,,0.49,0,Wunderground v.1.15,2013-04-11 02:50:00,
2013-04-10 21:53:00,45.1,37.6,29.95,WNW,290,5.0,8.0,75,0.00,,,0.49,0,Wunderground v.1.15,2013-04-11 02:53:00,
2013-04-10 21:54:00,45.1,37.6,29.95,WNW,296,5.0,8.0,75,0.00,,,0.49,0,Wunderground v.1.15,2013-04-11 02:54:00,
2013-04-10 21:55:00,45.0,37.6,29.95,NW,323,6.0,8.0,75,0.00,,,0.49,0,Wunderground v.1.15,2013-04-11 02:55:00,
2013-04-10 21:57:00,45.0,37.2,29.95,WNW,290,6.0,8.0,74,0.00,,,0.49,0,Wunderground v.1.15,2013-04-11 02:57:00,
2013-04-10 22:02:00,44.9,37.1,29.96,WNW,303,7.0,7.0,74,0.00,,,0.49,0,Wunderground v.1.15,2013-04-11 03:02:00,
2013-04-10 22:03:00,44.9,37.1,29.95,NNW,327,7.0,10.0,74,0.00,,,0.49,0,Wunderground v.1.15,2013-04-11 03:03:00,
2013-04-10 22:07:00,44.7,36.9,29.96,NW,309,8.0,10.0,74,0.00,,,0.49,0,Wunderground v.1.15,2013-04-11 03:07:00,
2013-04-10 22:08:00,44.7,36.9,29.96,WNW,299,8.0,10.0,74,0.00,,,0.49,0,Wunderground v.1.15,2013-04-11 03:08:00,
2013-04-10 22:10:00,44.7,36.9,29.96,NW,308,8.0,10.0,74,0.00,,,0.49,0,Wunderground v.1.15,2013-04-11 03:10:00,
2013-04-10 22:12:00,44.6,36.8,29.96,WNW,290,8.0,11.0,74,0.00,,,0.49,0,Wunderground v.1.15,2013-04-11 03:12:00,
2013-04-10 22:14:00,44.6,36.8,29.96,NNW,328,8.0,12.0,74,0.00,,,0.49,0,Wunderground v.1.15,2013-04-11 03:14:00,
2013-04-10 22:16:00,44.5,36.7,29.96,NW,321,9.0,12.0,74,0.00,,,0.49,0,Wunderground v.1.15,2013-04-11 03:16:00,
2013-04-10 22:18:00,44.5,36.7,29.96,WNW,293,9.0,12.0,74,0.00,,,0.49,0,Wunderground v.1.15,2013-04-11 03:18:00,
2013-04-10 22:19:00,44.5,36.7,29.96,WNW,293,9.0,12.0,74,0.00,,,0.49,0,Wunderground v.1.15,2013-04-11 03:19:00,
2013-04-10 22:22:00,44.5,36.7,29.95,NW,304,10.0,10.0,74,0.00,,,0.49,0,Wunderground v.1.15,2013-04-11 03:22:00,
2013-04-10 22:25:00,44.4,36.6,29.95,NW,309,9.0,10.0,74,0.00,,,0.49,0,Wunderground v.1.15,2013-04-11 03:25:00,
2013-04-10 22:27:00,44.4,36.6,29.95,NW,311,9.0,10.0,74,0.00,,,0.49,0,Wunderground v.1.15,2013-04-11 03:27:00,
2013-04-10 22:28:00,44.5,36.7,29.95,NW,304,8.0,10.0,74,0.00,,,0.49,0,Wunderground v.1.15,2013-04-11 03:28:00,
2013-04-10 22:29:00,44.5,36.7,29.95,NW,309,8.0,10.0,74,0.00,,,0.49,0,Wunderground v.1.15,2013-04-11 03:29:00,
2013-04-10 22:31:00,44.4,36.6,29.95,WNW,292,8.0,10.0,74,0.00,,,0.49,0,Wunderground v.1.15,2013-04-11 03:31:00,
2013-04-10 22:36:00,44.3,36.5,29.96,NNW,337,11.0,16.0,74,0.00,,,0.49,0,Wunderground v.1.15,2013-04-11 03:36:00,
2013-04-10 22:37:00,44.3,36.5,29.96,NW,317,11.0,16.0,74,0.00,,,0.49,0,Wunderground v.1.15,2013-04-11 03:37:00,
2013-04-10 22:38:00,44.3,36.2,29.96,NNW,327,11.0,16.0,73,0.00,,,0.49,0,Wunderground v.1.15,2013-04-11 03:38:00,
2013-04-10 22:42:00,44.2,36.4,29.96,NW,317,10.0,11.0,74,0.00,,,0.49,0,Wunderground v.1.15,2013-04-11 03:42:00,
2013-04-10 22:43:00,44.2,36.4,29.95,NNW,336,11.0,11.0,74,0.00,,,0.49,0,Wunderground v.1.15,2013-04-11 03:43:00,
2013-04-10 22:44:00,44.1,36.3,29.95,NW,319,10.0,14.0,74,0.00,,,0.49,0,Wunderground v.1.15,2013-04-11 03:44:00,
2013-04-10 22:45:00,44.1,36.3,29.95,NW,305,10.0,14.0,74,0.00,,,0.49,0,Wunderground v.1.15,2013-04-11 03:45:00,
2013-04-10 22:49:00,44.0,36.2,29.95,NW,306,9.0,14.0,74,0.00,,,0.49,0,Wunderground v.1.15,2013-04-11 03:49:00,
2013-04-10 22:51:00,43.9,36.1,29.95,NNW,342,10.0,10.0,74,0.00,,,0.49,0,Wunderground v.1.15,2013-04-11 03:51:00,
2013-04-10 22:55:00,43.7,35.6,29.95,North,5,11.0,20.0,73,0.00,,,0.49,0,Wunderground v.1.15,2013-04-11 03:55:00,
2013-04-10 22:56:00,43.7,35.6,29.95,NW,317,11.0,20.0,73,0.00,,,0.49,0,Wunderground v.1.15,2013-04-11 03:56:00,
2013-04-10 22:57:00,43.6,35.5,29.96,WNW,292,11.0,20.0,73,0.00,,,0.49,0,Wunderground v.1.15,2013-04-11 03:57:00,
2013-04-10 22:59:00,43.5,35.4,29.96,North,350,11.0,20.0,73,0.00,,,0.49,0,Wunderground v.1.15,2013-04-11 03:59:00,
2013-04-10 23:01:00,43.4,35.0,29.96,NNW,339,11.0,11.0,72,0.00,,,0.49,0,Wunderground v.1.15,2013-04-11 04:01:00,
2013-04-10 23:02:00,43.3,34.9,29.96,NNE,24,11.0,11.0,72,0.00,,,0.49,0,Wunderground v.1.15,2013-04-11 04:02:00,
2013-04-10 23:05:00,43.1,35.0,29.96,NW,315,9.0,11.0,73,0.00,,,0.49,0,Wunderground v.1.15,2013-04-11 04:05:00,
2013-04-10 23:06:00,43.1,35.0,29.96,NNW,336,9.0,11.0,73,0.00,,,0.49,0,Wunderground v.1.15,2013-04-11 04:06:00,
2013-04-10 23:11:00,42.8,34.7,29.96,WNW,287,8.0,8.0,73,0.00,,,0.49,0,Wunderground v.1.15,2013-04-11 04:11:00,
2013-04-10 23:12:00,42.7,34.6,29.96,WNW,300,8.0,8.0,73,0.00,,,0.49,0,Wunderground v.1.15,2013-04-11 04:12:00,
2013-04-10 23:13:00,42.7,35.0,29.96,NW,320,8.0,8.0,74,0.00,,,0.49,0,Wunderground v.1.15,2013-04-11 04:13:00,
2013-04-10 23:18:00,42.5,34.8,29.96,NW,306,8.0,11.0,74,0.00,,,0.49,0,Wunderground v.1.15,2013-04-11 04:18:00,
2013-04-10 23:19:00,42.4,34.7,29.96,NNW,338,8.0,11.0,74,0.00,,,0.49,0,Wunderground v.1.15,2013-04-11 04:19:00,
2013-04-10 23:20:00,42.4,34.7,29.96,NW,311,8.0,11.0,74,0.00,,,0.49,0,Wunderground v.1.15,2013-04-11 04:20:00,
2013-04-10 23:25:00,42.3,34.9,29.97,NNW,342,8.0,10.0,75,0.00,,,0.49,0,Wunderground v.1.15,2013-04-11 04:25:00,
2013-04-10 23:26:00,42.3,34.9,29.97,WNW,291,8.0,10.0,75,0.00,,,0.49,0,Wunderground v.1.15,2013-04-11 04:26:00,
2013-04-10 23:27:00,42.2,34.8,29.97,NNW,338,7.0,10.0,75,0.00,,,0.49,0,Wunderground v.1.15,2013-04-11 04:27:00,
2013-04-10 23:29:00,42.2,34.8,29.97,NW,325,7.0,12.0,75,0.00,,,0.49,0,Wunderground v.1.15,2013-04-11 04:29:00,
2013-04-10 23:32:00,42.1,34.7,29.97,NW,311,7.0,7.0,75,0.00,,,0.49,0,Wunderground v.1.15,2013-04-11 04:32:00,
2013-04-10 23:35:00,42.0,35.0,29.97,NNW,338,6.0,7.0,76,0.00,,,0.49,0,Wunderground v.1.15,2013-04-11 04:35:00,
2013-04-10 23:37:00,42.0,35.0,29.97,WNW,297,6.0,11.0,76,0.00,,,0.49,0,Wunderground v.1.15,2013-04-11 04:37:00,
2013-04-10 23:38:00,42.0,35.0,29.97,NW,311,7.0,11.0,76,0.00,,,0.49,0,Wunderground v.1.15,2013-04-11 04:38:00,
2013-04-10 23:43:00,41.9,34.9,29.98,NNW,327,5.0,7.0,76,0.00,,,0.49,0,Wunderground v.1.15,2013-04-11 04:43:00,
2013-04-10 23:45:00,41.8,34.8,29.98,NW,322,5.0,7.0,76,0.00,,,0.49,0,Wunderground v.1.15,2013-04-11 04:45:00,
2013-04-10 23:46:00,41.8,34.8,29.98,NNW,336,6.0,7.0,76,0.00,,,0.49,0,Wunderground v.1.15,2013-04-11 04:46:00,
2013-04-10 23:50:00,41.7,34.7,29.98,NNW,329,5.0,7.0,76,0.00,,,0.49,0,Wunderground v.1.15,2013-04-11 04:50:00,
2013-04-10 23:51:00,41.7,34.7,29.98,NW,317,6.0,6.0,76,0.00,,,0.49,0,Wunderground v.1.15,2013-04-11 04:51:00,
2013-04-10 23:52:00,41.7,34.7,29.98,NNW,340,6.0,7.0,76,0.00,,,0.49,0,Wunderground v.1.15,2013-04-11 04:52:00,
2013-04-10 23:57:00,41.6,34.6,29.96,NW,322,7.0,7.0,76,0.00,,,0.49,0,Wunderground v.1.15,2013-04-11 04:57:00,
2013-04-10 23:58:00,41.6,34.6,29.96,NW,315,7.0,7.0,76,0.00,,,0.49,0,Wunderground v.1.15,2013-04-11 04:58:00,
2013-04-10 23:59:00,41.6,34.6,29.96,NNW,337,7.0,7.0,76,0.00,,,0.49,0,Wunderground v.1.15,2013-04-11 04:59:00,